| time (UTC) | temp C | wind direction | speed KPH | gust KPH | rain 1hr cm | rain 24hr cm | rain mn cm | humidity % | barometer mb |
| 20260507070703 | 18 | 214 | 3.2 | 12.9 | 0.00 | 0.15 | 0.00 | 64 | 1012.2 |
| 20260507070600 | 18 | 221 | 6.4 | 12.9 | 0.00 | 0.15 | 0.00 | 62 | 1012.2 |
| 20260507070503 | 17 | 221 | 6.4 | 12.9 | 0.00 | 0.15 | 0.00 | 62 | 1012.2 |
| 20260507070400 | 17 | 214 | 8.0 | 12.9 | 0.00 | 0.15 | 0.00 | 63 | 1012.2 |
| 20260507070300 | 17 | 199 | 8.0 | 12.9 | 0.00 | 0.15 | 0.00 | 62 | 1012.2 |
| 20260507070204 | 17 | 224 | 11.3 | 12.9 | 0.00 | 0.15 | 0.00 | 63 | 1012.2 |
| 20260507070100 | 17 | 232 | 8.0 | 12.9 | 0.00 | 0.15 | 0.00 | 62 | 1012.2 |
| 20260507065905 | 17 | 221 | 9.7 | 12.9 | 0.00 | 0.15 | 0.00 | 64 | 1012.1 |
| 20260507065700 | 17 | 236 | 9.7 | 12.9 | 0.00 | 0.15 | 0.00 | 66 | 1012.1 |
| 20260507065605 | 17 | 259 | 4.8 | 12.9 | 0.00 | 0.15 | 0.00 | 64 | 1012.1 |
| 20260507065400 | 17 | 257 | 4.8 | 12.9 | 0.00 | 0.15 | 0.00 | 65 | 1012.1 |
| 20260507065306 | 17 | 246 | 6.4 | 12.9 | 0.00 | 0.15 | 0.00 | 63 | 1012.1 |
| 20260507065200 | 17 | 209 | 6.4 | 12.9 | 0.00 | 0.15 | 0.00 | 65 | 1012.1 |
| 20260507065059 | 17 | 223 | 9.7 | 12.9 | 0.00 | 0.15 | 0.00 | 65 | 1012.1 |
| 20260507065004 | 17 | 224 | 9.7 | 12.9 | 0.00 | 0.15 | 0.00 | 64 | 1012.1 |
| 20260507064900 | 17 | 211 | 11.3 | 14.5 | 0.00 | 0.15 | 0.00 | 66 | 1012.1 |
| 20260507064802 | 17 | 226 | 8.0 | 14.5 | 0.00 | 0.15 | 0.00 | 65 | 1012.1 |
| 20260507064702 | 17 | 262 | 4.8 | 14.5 | 0.00 | 0.15 | 0.00 | 64 | 1012.1 |
| 20260507064500 | 17 | 232 | 11.3 | 14.5 | 0.00 | 0.15 | 0.00 | 67 | 1012.1 |
| 20260507064259 | 17 | 211 | 9.7 | 14.5 | 0.00 | 0.15 | 0.00 | 66 | 1012.1 |
| 20260507064200 | 17 | 226 | 9.7 | 14.5 | 0.00 | 0.15 | 0.00 | 66 | 1012.1 |
| 20260507064103 | 17 | 218 | 8.0 | 14.5 | 0.00 | 0.15 | 0.00 | 66 | 1012.0 |
| 20260507064000 | 17 | 239 | 11.3 | 14.5 | 0.00 | 0.15 | 0.00 | 67 | 1012.0 |
| 20260507063859 | 17 | 232 | 8.0 | 14.5 | 0.00 | 0.15 | 0.00 | 67 | 1012.0 |
| 20260507063802 | 17 | 220 | 11.3 | 14.5 | 0.00 | 0.15 | 0.00 | 66 | 1012.0 |
| 20260507063600 | 16 | 257 | 8.0 | 14.5 | 0.00 | 0.15 | 0.00 | 67 | 1012.0 |
| 20260507063504 | 16 | 264 | 9.7 | 14.5 | 0.00 | 0.15 | 0.00 | 67 | 1012.0 |
| 20260507063300 | 16 | 234 | 4.8 | 14.5 | 0.00 | 0.15 | 0.00 | 67 | 1011.9 |
| 20260507063100 | 16 | 254 | 6.4 | 14.5 | 0.00 | 0.15 | 0.00 | 67 | 1011.9 |
| 20260507063000 | 16 | 226 | 9.7 | 14.5 | 0.00 | 0.15 | 0.00 | 68 | 1011.9 |
| 20260507062903 | 16 | 227 | 11.3 | 12.9 | 0.00 | 0.15 | 0.00 | 67 | 1011.9 |
| 20260507062800 | 16 | 268 | 8.0 | 12.9 | 0.00 | 0.15 | 0.00 | 68 | 1011.9 |
| 20260507062703 | 16 | 260 | 6.4 | 12.9 | 0.00 | 0.15 | 0.00 | 69 | 1011.9 |
| 20260507062602 | 16 | 257 | 8.0 | 12.9 | 0.00 | 0.15 | 0.00 | 70 | 1011.9 |
| 20260507062500 | 16 | 265 | 8.0 | 12.9 | 0.00 | 0.15 | 0.00 | 71 | 1011.9 |
| 20260507062400 | 16 | 244 | 9.7 | 9.7 | 0.00 | 0.15 | 0.00 | 71 | 1011.9 |
| 20260507062305 | 16 | 240 | 4.8 | 8.0 | 0.00 | 0.15 | 0.00 | 70 | 1011.9 |
| 20260507062200 | 16 | 262 | 4.8 | 8.0 | 0.00 | 0.15 | 0.00 | 70 | 1011.9 |
| 20260507062059 | 16 | 269 | 6.4 | 8.0 | 0.00 | 0.15 | 0.00 | 72 | 1011.9 |
| 20260507061900 | 16 | 223 | 4.8 | 9.7 | 0.00 | 0.15 | 0.00 | 70 | 1011.9 |
| 20260507061800 | 16 | 246 | 4.8 | 9.7 | 0.00 | 0.15 | 0.00 | 71 | 1011.9 |
| 20260507061703 | 16 | 262 | 6.4 | 9.7 | 0.00 | 0.15 | 0.00 | 73 | 1011.9 |
| 20260507061500 | 16 | 258 | 3.2 | 9.7 | 0.00 | 0.15 | 0.00 | 71 | 1011.8 |
| 20260507061402 | 16 | 258 | 1.6 | 9.7 | 0.00 | 0.15 | 0.00 | 71 | 1011.8 |
| 20260507061301 | 15 | 257 | 4.8 | 9.7 | 0.00 | 0.15 | 0.00 | 71 | 1011.8 |
| 20260507061200 | 15 | 260 | 6.4 | 9.7 | 0.00 | 0.15 | 0.00 | 72 | 1011.8 |
| 20260507061103 | 15 | 272 | 4.8 | 9.7 | 0.00 | 0.15 | 0.00 | 72 | 1011.8 |
| 20260507061000 | 15 | 263 | 6.4 | 9.7 | 0.00 | 0.15 | 0.00 | 72 | 1011.8 |
| 20260507060802 | 15 | 276 | 3.2 | 11.3 | 0.00 | 0.15 | 0.00 | 73 | 1011.8 |
| 20260507060700 | 15 | 245 | 8.0 | 11.3 | 0.00 | 0.15 | 0.00 | 73 | 1011.8 |
| 20260507060601 | 15 | 256 | 4.8 | 11.3 | 0.00 | 0.15 | 0.00 | 73 | 1011.8 |
| 20260507060502 | 15 | 260 | 6.4 | 11.3 | 0.00 | 0.15 | 0.00 | 74 | 1011.8 |
| 20260507060300 | 15 | 252 | 4.8 | 11.3 | 0.00 | 0.15 | 0.00 | 74 | 1011.8 |
| 20260507060119 | 15 | 274 | 9.7 | 11.3 | 0.00 | 0.15 | 0.00 | 75 | 1011.8 |
| 20260507060007 | 15 | 281 | 6.4 | 11.3 | 0.00 | 0.15 | 0.00 | 75 | 1011.8 |
| 20260507055903 | 15 | 296 | 8.0 | 9.7 | 0.00 | 0.20 | 0.00 | 76 | 1011.8 |
| 20260507055602 | 14 | 296 | 3.2 | 9.7 | 0.00 | 0.20 | 0.00 | 76 | 1011.8 |
| 20260507055502 | 14 | 300 | 9.7 | 9.7 | 0.00 | 0.20 | 0.00 | 76 | 1011.9 |
| 20260507055359 | 14 | 277 | 4.8 | 8.0 | 0.00 | 0.20 | 0.00 | 77 | 1011.8 |
| 20260507055305 | 14 | 289 | 3.2 | 8.0 | 0.00 | 0.20 | 0.00 | 76 | 1011.9 |
| 20260507055201 | 14 | 311 | 6.4 | 8.0 | 0.00 | 0.20 | 0.00 | 77 | 1011.8 |
| 20260507055100 | 14 | 311 | 6.4 | 8.0 | 0.00 | 0.20 | 0.00 | 77 | 1011.8 |
| 20260507055005 | 13 | 288 | 6.4 | 8.0 | 0.00 | 0.20 | 0.00 | 77 | 1011.8 |
| 20260507054759 | 13 | 298 | 4.8 | 6.4 | 0.00 | 0.20 | 0.00 | 79 | 1011.8 |
| 20260507054602 | 13 | 306 | 4.8 | 6.4 | 0.00 | 0.20 | 0.00 | 80 | 1011.8 |
| 20260507054500 | 13 | 306 | 1.6 | 6.4 | 0.00 | 0.20 | 0.00 | 80 | 1011.8 |
| 20260507054403 | 13 | 306 | 6.4 | 6.4 | 0.00 | 0.20 | 0.00 | 80 | 1011.8 |
| 20260507054302 | 13 | 319 | 6.4 | 6.4 | 0.00 | 0.20 | 0.00 | 80 | 1011.7 |
| 20260507054201 | 13 | 319 | 6.4 | 6.4 | 0.00 | 0.20 | 0.00 | 81 | 1011.8 |
| 20260507054104 | 13 | 319 | 4.8 | 6.4 | 0.00 | 0.20 | 0.00 | 81 | 1011.8 |
| 20260507054005 | 13 | 326 | 6.4 | 6.4 | 0.00 | 0.20 | 0.00 | 81 | 1011.8 |
| 20260507053802 | 13 | 320 | 3.2 | 6.4 | 0.00 | 0.20 | 0.00 | 81 | 1011.8 |
| 20260507053702 | 13 | 158 | 4.8 | 6.4 | 0.00 | 0.20 | 0.00 | 81 | 1011.7 |
| 20260507053600 | 13 | 158 | 3.2 | 6.4 | 0.00 | 0.20 | 0.00 | 81 | 1011.8 |
| 20260507053502 | 13 | 158 | 4.8 | 4.8 | 0.00 | 0.20 | 0.00 | 81 | 1011.7 |
| 20260507053402 | 13 | 158 | 3.2 | 4.8 | 0.00 | 0.20 | 0.00 | 81 | 1011.8 |
| 20260507053300 | 13 | 158 | 4.8 | 4.8 | 0.00 | 0.20 | 0.00 | 81 | 1011.7 |
| 20260507053203 | 13 | 158 | 3.2 | 6.4 | 0.00 | 0.20 | 0.00 | 81 | 1011.7 |
| 20260507053102 | 13 | 158 | 3.2 | 6.4 | 0.00 | 0.20 | 0.00 | 81 | 1011.7 |
| 20260507052801 | 12 | 158 | 3.2 | 6.4 | 0.00 | 0.20 | 0.00 | 81 | 1011.7 |
| 20260507052703 | 12 | 158 | 1.6 | 6.4 | 0.00 | 0.20 | 0.00 | 81 | 1011.7 |
| 20260507052604 | 12 | 158 | 3.2 | 6.4 | 0.00 | 0.20 | 0.00 | 82 | 1011.7 |
| 20260507052500 | 12 | 158 | 4.8 | 6.4 | 0.00 | 0.20 | 0.00 | 82 | 1011.7 |
| 20260507052413 | 12 | 158 | 4.8 | 6.4 | 0.00 | 0.20 | 0.00 | 82 | 1011.7 |
| 20260507052305 | 12 | 158 | 3.2 | 6.4 | 0.00 | 0.20 | 0.00 | 83 | 1011.7 |
| 20260507052159 | 12 | 158 | 4.8 | 6.4 | 0.00 | 0.20 | 0.00 | 83 | 1011.7 |
| 20260507052102 | 12 | 158 | 4.8 | 4.8 | 0.00 | 0.20 | 0.00 | 82 | 1011.7 |
| 20260507052006 | 12 | 158 | 1.6 | 4.8 | 0.00 | 0.20 | 0.00 | 83 | 1011.7 |
| 20260507051900 | 12 | 158 | 1.6 | 4.8 | 0.00 | 0.20 | 0.00 | 82 | 1011.7 |
| 20260507051803 | 12 | 158 | 3.2 | 4.8 | 0.00 | 0.20 | 0.00 | 82 | 1011.7 |
| 20260507051703 | 12 | 211 | 3.2 | 4.8 | 0.00 | 0.20 | 0.00 | 83 | 1011.6 |
| 20260507051600 | 12 | 211 | 0.0 | 6.4 | 0.00 | 0.20 | 0.00 | 83 | 1011.6 |
| 20260507051505 | 12 | 211 | 0.0 | 6.4 | 0.00 | 0.20 | 0.00 | 83 | 1011.6 |
| 20260507051403 | 12 | 211 | 0.0 | 6.4 | 0.00 | 0.20 | 0.00 | 83 | 1011.6 |
| 20260507051300 | 12 | 211 | 3.2 | 6.4 | 0.00 | 0.20 | 0.00 | 83 | 1011.6 |
| 20260507051201 | 12 | 211 | 1.6 | 8.0 | 0.00 | 0.20 | 0.00 | 83 | 1011.6 |
| 20260507051002 | 12 | 211 | 1.6 | 9.7 | 0.00 | 0.20 | 0.00 | 83 | 1011.6 |
| 20260507050902 | 12 | 211 | 1.6 | 9.7 | 0.00 | 0.20 | 0.00 | 83 | 1011.5 |
| 20260507050802 | 12 | 211 | 0.0 | 9.7 | 0.00 | 0.20 | 0.00 | 83 | 1011.6 |
| 20260507050700 | 11 | 211 | 3.2 | 9.7 | 0.00 | 0.20 | 0.00 | 83 | 1011.5 |
| 20260507050503 | 11 | 211 | 3.2 | 11.3 | 0.00 | 0.20 | 0.00 | 84 | 1011.5 |
| 20260507050401 | 11 | 208 | 1.6 | 11.3 | 0.00 | 0.20 | 0.00 | 84 | 1011.4 |
| 20260507050302 | 11 | 208 | 3.2 | 12.9 | 0.00 | 0.20 | 0.00 | 84 | 1011.4 |
| 20260507050006 | 11 | 209 | 9.7 | 12.9 | 0.00 | 0.20 | 0.00 | 84 | 1011.4 |
| 20260507045903 | 11 | 202 | 6.4 | 12.9 | 0.00 | 0.36 | 0.00 | 84 | 1011.3 |
| 20260507045800 | 11 | 205 | 8.0 | 12.9 | 0.00 | 0.36 | 0.00 | 85 | 1011.4 |
| 20260507045702 | 11 | 209 | 9.7 | 12.9 | 0.00 | 0.36 | 0.00 | 85 | 1011.3 |
| 20260507045604 | 11 | 197 | 8.0 | 12.9 | 0.00 | 0.36 | 0.00 | 85 | 1011.3 |
| 20260507045459 | 11 | 190 | 9.7 | 12.9 | 0.00 | 0.36 | 0.00 | 85 | 1011.3 |
| 20260507045359 | 11 | 189 | 11.3 | 12.9 | 0.00 | 0.36 | 0.00 | 85 | 1011.3 |
| 20260507045331 | 11 | 186 | 11.3 | 11.3 | 0.00 | 0.36 | 0.00 | 85 | 1011.3 |
| 20260507045159 | 11 | 205 | 8.0 | 11.3 | 0.00 | 0.36 | 0.00 | 85 | 1011.3 |
| 20260507045059 | 11 | 208 | 9.7 | 11.3 | 0.00 | 0.36 | 0.00 | 86 | 1011.3 |
| 20260507044900 | 11 | 207 | 8.0 | 11.3 | 0.00 | 0.36 | 0.00 | 86 | 1011.3 |
| 20260507044800 | 11 | 214 | 8.0 | 11.3 | 0.00 | 0.36 | 0.00 | 86 | 1011.3 |
| 20260507044559 | 10 | 209 | 9.7 | 11.3 | 0.00 | 0.36 | 0.00 | 86 | 1011.2 |
| 20260507044500 | 10 | 213 | 6.4 | 11.3 | 0.00 | 0.36 | 0.00 | 86 | 1011.3 |
| 20260507044402 | 10 | 215 | 9.7 | 11.3 | 0.00 | 0.36 | 0.00 | 85 | 1011.3 |
| 20260507044259 | 10 | 214 | 6.4 | 9.7 | 0.00 | 0.36 | 0.00 | 85 | 1011.3 |
| 20260507044102 | 10 | 213 | 6.4 | 9.7 | 0.00 | 0.36 | 0.00 | 85 | 1011.3 |
| 20260507044001 | 10 | 223 | 8.0 | 9.7 | 0.00 | 0.36 | 0.00 | 85 | 1011.3 |
| 20260507043900 | 10 | 227 | 6.4 | 9.7 | 0.00 | 0.36 | 0.00 | 85 | 1011.3 |
| 20260507043803 | 10 | 211 | 8.0 | 9.7 | 0.00 | 0.36 | 0.00 | 85 | 1011.3 |
| 20260507043700 | 10 | 207 | 8.0 | 9.7 | 0.00 | 0.36 | 0.00 | 85 | 1011.3 |
| 20260507043600 | 10 | 201 | 8.0 | 8.0 | 0.00 | 0.36 | 0.00 | 85 | 1011.2 |
| 20260507043503 | 10 | 199 | 6.4 | 8.0 | 0.00 | 0.36 | 0.00 | 85 | 1011.2 |
| 20260507043400 | 10 | 196 | 4.8 | 8.0 | 0.00 | 0.36 | 0.00 | 85 | 1011.2 |
| 20260507043259 | 10 | 196 | 6.4 | 8.0 | 0.00 | 0.36 | 0.00 | 85 | 1011.2 |
| 20260507043203 | 10 | 198 | 6.4 | 8.0 | 0.00 | 0.36 | 0.00 | 84 | 1011.2 |
| 20260507043111 | 10 | 208 | 6.4 | 8.0 | 0.00 | 0.36 | 0.00 | 84 | 1011.2 |
| 20260507043000 | 10 | 229 | 6.4 | 6.4 | 0.00 | 0.36 | 0.00 | 84 | 1011.2 |
| 20260507042905 | 10 | 200 | 4.8 | 6.4 | 0.00 | 0.36 | 0.00 | 84 | 1011.2 |
| 20260507042800 | 10 | 196 | 4.8 | 8.0 | 0.00 | 0.36 | 0.00 | 84 | 1011.2 |
| 20260507042713 | 10 | 196 | 3.2 | 8.0 | 0.00 | 0.36 | 0.00 | 84 | 1011.2 |
| 20260507042606 | 10 | 196 | 3.2 | 8.0 | 0.00 | 0.36 | 0.00 | 84 | 1011.2 |
| 20260507042500 | 10 | 196 | 4.8 | 8.0 | 0.00 | 0.36 | 0.00 | 84 | 1011.1 |
| 20260507042402 | 10 | 206 | 6.4 | 8.0 | 0.00 | 0.36 | 0.00 | 84 | 1011.2 |
| 20260507042307 | 10 | 200 | 4.8 | 8.0 | 0.00 | 0.36 | 0.00 | 84 | 1011.2 |
| 20260507042159 | 10 | 200 | 4.8 | 8.0 | 0.00 | 0.36 | 0.00 | 84 | 1011.1 |
| 20260507042102 | 10 | 200 | 1.6 | 8.0 | 0.00 | 0.36 | 0.00 | 84 | 1011.1 |
| 20260507042023 | 10 | 200 | 1.6 | 8.0 | 0.00 | 0.36 | 0.00 | 84 | 1011.1 |
| 20260507041901 | 10 | 200 | 6.4 | 8.0 | 0.00 | 0.36 | 0.00 | 84 | 1011.1 |
| 20260507041705 | 11 | 200 | 4.8 | 6.4 | 0.00 | 0.36 | 0.00 | 83 | 1011.1 |
| 20260507041600 | 11 | 200 | 4.8 | 6.4 | 0.00 | 0.36 | 0.00 | 83 | 1011.0 |
| 20260507041502 | 11 | 200 | 4.8 | 6.4 | 0.00 | 0.36 | 0.00 | 83 | 1011.1 |
| 20260507041403 | 11 | 184 | 3.2 | 6.4 | 0.00 | 0.36 | 0.00 | 83 | 1011.1 |
| 20260507041301 | 11 | 184 | 4.8 | 6.4 | 0.00 | 0.36 | 0.00 | 83 | 1011.1 |
| 20260507041201 | 11 | 184 | 4.8 | 6.4 | 0.00 | 0.36 | 0.00 | 83 | 1011.0 |
| 20260507041102 | 11 | 184 | 4.8 | 6.4 | 0.00 | 0.36 | 0.00 | 83 | 1011.0 |
| 20260507041000 | 11 | 184 | 4.8 | 6.4 | 0.00 | 0.36 | 0.00 | 83 | 1011.1 |
| 20260507040902 | 11 | 184 | 3.2 | 6.4 | 0.00 | 0.36 | 0.00 | 83 | 1011.0 |
| 20260507040802 | 11 | 184 | 3.2 | 8.0 | 0.00 | 0.36 | 0.00 | 83 | 1011.0 |
| 20260507040700 | 11 | 184 | 1.6 | 8.0 | 0.00 | 0.36 | 0.00 | 83 | 1011.1 |
| 20260507040605 | 11 | 184 | 1.6 | 8.0 | 0.00 | 0.36 | 0.00 | 83 | 1011.1 |
| 20260507040400 | 11 | 205 | 3.2 | 8.0 | 0.00 | 0.36 | 0.00 | 83 | 1011.0 |
| 20260507040301 | 11 | 205 | 1.6 | 8.0 | 0.00 | 0.36 | 0.00 | 83 | 1011.0 |
| 20260507040202 | 11 | 205 | 3.2 | 8.0 | 0.00 | 0.36 | 0.00 | 83 | 1011.0 |
| 20260507040117 | 11 | 192 | 4.8 | 8.0 | 0.00 | 0.36 | 0.00 | 82 | 1011.0 |
| 20260507040007 | 11 | 221 | 3.2 | 8.0 | 0.00 | 0.36 | 0.00 | 82 | 1010.9 |
| 20260507035759 | 11 | 232 | 3.2 | 6.4 | 0.00 | 0.89 | 0.00 | 82 | 1010.9 |
| 20260507035702 | 11 | 225 | 1.6 | 6.4 | 0.00 | 0.89 | 0.00 | 82 | 1011.0 |
| 20260507035500 | 11 | 245 | 3.2 | 4.8 | 0.00 | 0.89 | 0.00 | 82 | 1010.9 |
| 20260507035402 | 11 | 332 | 3.2 | 6.4 | 0.00 | 0.89 | 0.00 | 81 | 1010.9 |
| 20260507035200 | 11 | 332 | 0.0 | 9.7 | 0.00 | 0.89 | 0.00 | 81 | 1010.9 |
| 20260507035004 | 11 | 186 | 1.6 | 9.7 | 0.00 | 0.89 | 0.00 | 81 | 1010.9 |
| 20260507034859 | 11 | 186 | 0.0 | 9.7 | 0.00 | 0.89 | 0.00 | 81 | 1010.8 |
| 20260507034801 | 11 | 186 | 3.2 | 9.7 | 0.00 | 0.89 | 0.00 | 81 | 1010.8 |
| 20260507034702 | 11 | 186 | 1.6 | 9.7 | 0.00 | 0.89 | 0.00 | 80 | 1010.8 |
| 20260507034602 | 11 | 186 | 1.6 | 9.7 | 0.00 | 0.89 | 0.00 | 80 | 1010.7 |
| 20260507034502 | 11 | 186 | 4.8 | 9.7 | 0.00 | 0.89 | 0.00 | 79 | 1010.7 |
| 20260507034404 | 12 | 346 | 3.2 | 9.7 | 0.00 | 0.89 | 0.00 | 79 | 1010.6 |
| 20260507034300 | 12 | 344 | 8.0 | 9.7 | 0.00 | 0.89 | 0.00 | 78 | 1010.6 |
| 20260507034201 | 12 | 332 | 8.0 | 9.7 | 0.00 | 0.89 | 0.00 | 78 | 1010.7 |
| 20260507034107 | 12 | 344 | 6.4 | 9.7 | 0.00 | 0.89 | 0.00 | 78 | 1010.7 |
| 20260507034007 | 12 | 344 | 4.8 | 9.7 | 0.00 | 0.89 | 0.00 | 78 | 1010.6 |
| 20260507033901 | 12 | 345 | 6.4 | 9.7 | 0.00 | 0.89 | 0.00 | 77 | 1010.6 |
| 20260507033803 | 12 | 345 | 4.8 | 9.7 | 0.00 | 0.89 | 0.00 | 77 | 1010.6 |
| 20260507033700 | 12 | 325 | 4.8 | 9.7 | 0.00 | 0.89 | 0.00 | 77 | 1010.6 |
| 20260507033602 | 12 | 335 | 6.4 | 11.3 | 0.00 | 0.89 | 0.00 | 77 | 1010.6 |
| 20260507033401 | 12 | 319 | 8.0 | 11.3 | 0.00 | 0.89 | 0.00 | 77 | 1010.6 |
| 20260507033302 | 12 | 342 | 3.2 | 11.3 | 0.00 | 0.89 | 0.00 | 77 | 1010.6 |
| 20260507033204 | 12 | 332 | 4.8 | 11.3 | 0.00 | 0.89 | 0.00 | 77 | 1010.6 |
| 20260507033059 | 12 | 309 | 3.2 | 11.3 | 0.00 | 0.89 | 0.00 | 76 | 1010.6 |
| 20260507033002 | 12 | 309 | 4.8 | 11.3 | 0.00 | 0.89 | 0.00 | 76 | 1010.6 |
| 20260507032902 | 12 | 237 | 3.2 | 11.3 | 0.00 | 0.89 | 0.00 | 75 | 1010.6 |
| 20260507032801 | 12 | 237 | 3.2 | 11.3 | 0.00 | 0.89 | 0.00 | 75 | 1010.5 |
| 20260507032703 | 12 | 211 | 9.7 | 11.3 | 0.00 | 0.89 | 0.00 | 76 | 1010.5 |
| 20260507032501 | 12 | 242 | 3.2 | 11.3 | 0.00 | 0.89 | 0.00 | 76 | 1010.5 |
| 20260507032403 | 12 | 242 | 4.8 | 11.3 | 0.00 | 0.89 | 0.00 | 76 | 1010.5 |
| 20260507032305 | 12 | 225 | 6.4 | 11.3 | 0.00 | 0.89 | 0.00 | 76 | 1010.6 |
| 20260507032004 | 13 | 245 | 4.8 | 11.3 | 0.00 | 0.89 | 0.00 | 76 | 1010.6 |
| 20260507031901 | 13 | 242 | 4.8 | 11.3 | 0.00 | 0.89 | 0.00 | 75 | 1010.6 |
| 20260507031800 | 13 | 261 | 3.2 | 11.3 | 0.00 | 0.89 | 0.00 | 75 | 1010.6 |
| 20260507031600 | 13 | 286 | 6.4 | 11.3 | 0.00 | 0.89 | 0.00 | 75 | 1010.6 |
| 20260507031503 | 13 | 286 | 3.2 | 11.3 | 0.00 | 0.89 | 0.00 | 75 | 1010.5 |
| 20260507031402 | 13 | 306 | 8.0 | 11.3 | 0.00 | 0.89 | 0.00 | 74 | 1010.5 |
| 20260507031301 | 13 | 325 | 4.8 | 11.3 | 0.00 | 0.89 | 0.00 | 76 | 1010.5 |
| 20260507031104 | 13 | 316 | 6.4 | 11.3 | 0.00 | 0.89 | 0.00 | 74 | 1010.5 |
| 20260507031000 | 13 | 335 | 8.0 | 11.3 | 0.00 | 0.89 | 0.00 | 74 | 1010.6 |
| 20260507030903 | 13 | 334 | 6.4 | 11.3 | 0.00 | 0.89 | 0.00 | 74 | 1010.6 |
| 20260507030805 | 13 | 331 | 6.4 | 11.3 | 0.00 | 0.89 | 0.00 | 73 | 1010.6 |
| 20260507030659 | 13 | 320 | 8.0 | 11.3 | 0.00 | 0.89 | 0.00 | 73 | 1010.6 |
| 20260507030601 | 14 | 338 | 6.4 | 11.3 | 0.00 | 0.89 | 0.00 | 73 | 1010.6 |
| 20260507030400 | 14 | 355 | 4.8 | 11.3 | 0.00 | 0.89 | 0.00 | 73 | 1010.5 |
| 20260507030202 | 14 | 355 | 11.3 | 11.3 | 0.00 | 0.89 | 0.00 | 72 | 1010.5 |
| 20260507030100 | 14 | 348 | 8.0 | 11.3 | 0.00 | 0.89 | 0.00 | 72 | 1010.5 |
| 20260507030005 | 14 | 13 | 4.8 | 12.9 | 0.00 | 0.89 | 0.00 | 71 | 1010.4 |
| 20260507025902 | 14 | 355 | 6.4 | 12.9 | 0.00 | 0.94 | 0.00 | 71 | 1010.4 |
| 20260507025759 | 15 | 12 | 9.7 | 12.9 | 0.00 | 0.94 | 0.00 | 68 | 1010.4 |
| 20260507025702 | 15 | 355 | 9.7 | 12.9 | 0.00 | 0.94 | 0.00 | 67 | 1010.4 |
| 20260507025602 | 15 | 327 | 6.4 | 12.9 | 0.00 | 0.94 | 0.00 | 67 | 1010.4 |
| 20260507025500 | 15 | 21 | 1.6 | 12.9 | 0.00 | 0.94 | 0.00 | 67 | 1010.4 |
| 20260507025401 | 15 | 201 | 1.6 | 12.9 | 0.00 | 0.94 | 0.00 | 66 | 1010.3 |
| 20260507025306 | 14 | 201 | 1.6 | 16.1 | 0.00 | 0.94 | 0.00 | 66 | 1010.3 |
| 20260507025159 | 14 | 184 | 3.2 | 19.3 | 0.00 | 0.94 | 0.00 | 67 | 1010.4 |
| 20260507025102 | 14 | 194 | 6.4 | 19.3 | 0.00 | 0.94 | 0.00 | 68 | 1010.4 |
| 20260507025004 | 14 | 177 | 9.7 | 19.3 | 0.00 | 0.94 | 0.00 | 68 | 1010.4 |
| 20260507024859 | 14 | 182 | 6.4 | 19.3 | 0.00 | 0.94 | 0.00 | 68 | 1010.3 |
| 20260507024801 | 14 | 200 | 6.4 | 19.3 | 0.00 | 0.94 | 0.00 | 68 | 1010.3 |
| 20260507024703 | 14 | 215 | 9.7 | 19.3 | 0.00 | 0.94 | 0.00 | 69 | 1010.3 |
| 20260507024559 | 14 | 187 | 9.7 | 19.3 | 0.00 | 0.94 | 0.00 | 69 | 1010.3 |
| 20260507024503 | 14 | 187 | 8.0 | 19.3 | 0.00 | 0.94 | 0.00 | 69 | 1010.2 |
| 20260507024404 | 14 | 189 | 8.0 | 19.3 | 0.00 | 0.94 | 0.00 | 70 | 1010.2 |
| 20260507024301 | 14 | 186 | 8.0 | 19.3 | 0.00 | 0.94 | 0.00 | 70 | 1010.2 |
| 20260507024203 | 14 | 195 | 12.9 | 17.7 | 0.00 | 0.94 | 0.00 | 71 | 1010.2 |
| 20260507024105 | 14 | 196 | 11.3 | 17.7 | 0.00 | 0.94 | 0.00 | 71 | 1010.2 |
| 20260507024000 | 14 | 167 | 8.0 | 17.7 | 0.00 | 0.94 | 0.00 | 71 | 1010.2 |
| 20260507023901 | 14 | 182 | 8.0 | 20.9 | 0.00 | 0.94 | 0.00 | 71 | 1010.2 |
| 20260507023802 | 14 | 175 | 8.0 | 20.9 | 0.00 | 0.94 | 0.00 | 71 | 1010.2 |
| 20260507023601 | 14 | 167 | 12.9 | 20.9 | 0.00 | 0.94 | 0.00 | 71 | 1010.2 |
| 20260507023502 | 14 | 176 | 11.3 | 20.9 | 0.00 | 0.94 | 0.00 | 71 | 1010.3 |
| 20260507023301 | 14 | 174 | 8.0 | 20.9 | 0.00 | 0.94 | 0.00 | 70 | 1010.3 |
| 20260507023059 | 14 | 169 | 11.3 | 20.9 | 0.00 | 0.94 | 0.00 | 71 | 1010.3 |
| 20260507023003 | 14 | 170 | 11.3 | 20.9 | 0.00 | 0.94 | 0.00 | 71 | 1010.3 |
| 20260507022903 | 14 | 179 | 11.3 | 20.9 | 0.00 | 0.94 | 0.00 | 70 | 1010.3 |
| 20260507022702 | 14 | 198 | 12.9 | 17.7 | 0.00 | 0.94 | 0.00 | 71 | 1010.4 |
| 20260507022603 | 14 | 182 | 17.7 | 19.3 | 0.00 | 0.94 | 0.00 | 71 | 1010.4 |
| 20260507022501 | 14 | 184 | 14.5 | 19.3 | 0.00 | 0.94 | 0.00 | 71 | 1010.5 |
| 20260507022406 | 14 | 184 | 14.5 | 19.3 | 0.00 | 0.94 | 0.00 | 71 | 1010.5 |
| 20260507022306 | 14 | 192 | 12.9 | 17.7 | 0.00 | 0.94 | 0.00 | 71 | 1010.5 |
| 20260507022159 | 14 | 188 | 9.7 | 19.3 | 0.00 | 0.94 | 0.00 | 71 | 1010.5 |
| 20260507022102 | 14 | 190 | 12.9 | 19.3 | 0.00 | 0.94 | 0.00 | 71 | 1010.5 |
| 20260507022003 | 14 | 223 | 14.5 | 17.7 | 0.00 | 0.94 | 0.00 | 71 | 1010.5 |
| 20260507021900 | 14 | 205 | 16.1 | 17.7 | 0.00 | 0.94 | 0.00 | 71 | 1010.5 |
| 20260507021801 | 15 | 185 | 11.3 | 17.7 | 0.00 | 0.94 | 0.00 | 71 | 1010.5 |
| 20260507021702 | 14 | 211 | 11.3 | 17.7 | 0.00 | 0.94 | 0.00 | 71 | 1010.5 |
| 20260507021559 | 14 | 224 | 12.9 | 17.7 | 0.00 | 0.94 | 0.00 | 71 | 1010.5 |
| 20260507021402 | 15 | 223 | 11.3 | 17.7 | 0.00 | 0.94 | 0.00 | 71 | 1010.6 |
| 20260507021300 | 15 | 229 | 11.3 | 17.7 | 0.00 | 0.94 | 0.00 | 71 | 1010.6 |
| 20260507021103 | 15 | 241 | 12.9 | 16.1 | 0.00 | 0.94 | 0.00 | 70 | 1010.6 |
| 20260507021001 | 15 | 225 | 9.7 | 16.1 | 0.00 | 0.94 | 0.00 | 70 | 1010.6 |
| 20260507020901 | 15 | 233 | 9.7 | 16.1 | 0.00 | 0.94 | 0.00 | 70 | 1010.6 |
| 20260507020659 | 14 | 218 | 12.9 | 16.1 | 0.00 | 0.94 | 0.00 | 70 | 1010.6 |
| 20260507020601 | 14 | 240 | 9.7 | 16.1 | 0.00 | 0.94 | 0.00 | 71 | 1010.6 |
| 20260507020505 | 14 | 211 | 11.3 | 16.1 | 0.00 | 0.94 | 0.00 | 71 | 1010.6 |
| 20260507020400 | 14 | 225 | 8.0 | 16.1 | 0.00 | 0.94 | 0.00 | 71 | 1010.6 |
| 20260507020204 | 14 | 236 | 12.9 | 16.1 | 0.00 | 0.94 | 0.00 | 72 | 1010.6 |
| 20260507015902 | 14 | 229 | 12.9 | 12.9 | 0.00 | 0.97 | 0.00 | 73 | 1010.6 |
| 20260507015801 | 14 | 247 | 8.0 | 11.3 | 0.00 | 0.97 | 0.00 | 73 | 1010.6 |
| 20260507015702 | 14 | 243 | 11.3 | 11.3 | 0.00 | 0.97 | 0.00 | 73 | 1010.6 |
| 20260507015602 | 14 | 249 | 6.4 | 9.7 | 0.00 | 0.97 | 0.00 | 73 | 1010.6 |
| 20260507015200 | 14 | 227 | 3.2 | 9.7 | 0.00 | 0.97 | 0.00 | 72 | 1010.6 |
| 20260507015102 | 14 | 227 | 4.8 | 9.7 | 0.00 | 0.97 | 0.00 | 72 | 1010.6 |
| 20260507015006 | 14 | 227 | 3.2 | 11.3 | 0.00 | 0.97 | 0.00 | 72 | 1010.6 |
| 20260507014859 | 14 | 227 | 6.4 | 11.3 | 0.00 | 0.97 | 0.00 | 72 | 1010.6 |
| 20260507014802 | 14 | 227 | 4.8 | 11.3 | 0.00 | 0.97 | 0.00 | 72 | 1010.6 |
| 20260507014702 | 14 | 213 | 8.0 | 11.3 | 0.00 | 0.97 | 0.00 | 73 | 1010.6 |
| 20260507014605 | 14 | 246 | 3.2 | 11.3 | 0.00 | 0.97 | 0.00 | 72 | 1010.6 |
| 20260507014502 | 14 | 231 | 4.8 | 11.3 | 0.00 | 0.97 | 0.00 | 72 | 1010.7 |
| 20260507014402 | 14 | 254 | 4.8 | 11.3 | 0.00 | 0.97 | 0.00 | 72 | 1010.7 |
| 20260507014259 | 14 | 221 | 6.4 | 11.3 | 0.00 | 0.97 | 0.00 | 72 | 1010.7 |
| 20260507014203 | 14 | 252 | 6.4 | 11.3 | 0.00 | 0.97 | 0.00 | 73 | 1010.7 |
| 20260507014102 | 14 | 246 | 4.8 | 11.3 | 0.00 | 0.97 | 0.00 | 72 | 1010.6 |
| 20260507014002 | 14 | 232 | 4.8 | 11.3 | 0.00 | 0.97 | 0.00 | 72 | 1010.6 |
| 20260507013902 | 14 | 239 | 3.2 | 11.3 | 0.00 | 0.97 | 0.00 | 72 | 1010.6 |
| 20260507013802 | 14 | 239 | 8.0 | 12.9 | 0.00 | 0.97 | 0.00 | 72 | 1010.6 |
| 20260507013559 | 14 | 248 | 8.0 | 14.5 | 0.00 | 0.97 | 0.00 | 71 | 1010.5 |
| 20260507013520 | 14 | 234 | 6.4 | 14.5 | 0.00 | 0.97 | 0.00 | 71 | 1010.5 |
| 20260507013359 | 15 | 242 | 6.4 | 14.5 | 0.00 | 0.97 | 0.00 | 71 | 1010.4 |
| 20260507013300 | 15 | 250 | 3.2 | 14.5 | 0.00 | 0.97 | 0.00 | 71 | 1010.5 |
| 20260507013203 | 15 | 239 | 8.0 | 14.5 | 0.00 | 0.97 | 0.00 | 71 | 1010.4 |
| 20260507013059 | 15 | 239 | 6.4 | 14.5 | 0.00 | 0.97 | 0.00 | 71 | 1010.4 |
| 20260507013000 | 15 | 242 | 8.0 | 16.1 | 0.00 | 0.97 | 0.00 | 70 | 1010.4 |
| 20260507012902 | 15 | 226 | 8.0 | 17.7 | 0.00 | 0.97 | 0.00 | 71 | 1010.4 |
| 20260507012759 | 15 | 239 | 11.3 | 17.7 | 0.00 | 0.97 | 0.00 | 71 | 1010.4 |
| 20260507012659 | 15 | 240 | 11.3 | 19.3 | 0.00 | 0.97 | 0.00 | 71 | 1010.4 |
| 20260507012602 | 15 | 229 | 12.9 | 20.9 | 0.00 | 0.97 | 0.00 | 71 | 1010.4 |
| 20260507012501 | 15 | 233 | 9.7 | 20.9 | 0.00 | 0.97 | 0.00 | 71 | 1010.5 |
| 20260507012400 | 15 | 240 | 9.7 | 20.9 | 0.00 | 0.97 | 0.00 | 70 | 1010.5 |
| 20260507012305 | 15 | 243 | 9.7 | 20.9 | 0.00 | 0.97 | 0.00 | 70 | 1010.5 |
| 20260507012200 | 15 | 240 | 11.3 | 20.9 | 0.00 | 0.97 | 0.00 | 70 | 1010.4 |
| 20260507012059 | 15 | 236 | 11.3 | 20.9 | 0.00 | 0.97 | 0.00 | 70 | 1010.4 |
| 20260507012004 | 15 | 236 | 12.9 | 20.9 | 0.00 | 0.97 | 0.00 | 70 | 1010.4 |
| 20260507011900 | 15 | 232 | 16.1 | 20.9 | 0.00 | 0.97 | 0.00 | 70 | 1010.4 |
| 20260507011801 | 15 | 234 | 17.7 | 20.9 | 0.00 | 0.97 | 0.00 | 71 | 1010.4 |
| 20260507011702 | 15 | 218 | 17.7 | 20.9 | 0.00 | 0.97 | 0.00 | 71 | 1010.3 |
| 20260507011601 | 14 | 229 | 17.7 | 19.3 | 0.00 | 0.97 | 0.00 | 71 | 1010.4 |
| 20260507011500 | 14 | 221 | 19.3 | 19.3 | 0.00 | 0.97 | 0.00 | 71 | 1010.4 |
| 20260507011403 | 14 | 227 | 16.1 | 19.3 | 0.00 | 0.97 | 0.00 | 72 | 1010.4 |
| 20260507011259 | 14 | 233 | 12.9 | 14.5 | 0.00 | 0.97 | 0.00 | 72 | 1010.4 |
| 20260507011200 | 14 | 240 | 11.3 | 14.5 | 0.00 | 0.97 | 0.00 | 71 | 1010.4 |
| 20260507011103 | 14 | 252 | 11.3 | 14.5 | 0.00 | 0.97 | 0.00 | 72 | 1010.5 |
| 20260507011002 | 14 | 230 | 8.0 | 14.5 | 0.00 | 0.97 | 0.00 | 72 | 1010.4 |
| 20260507010859 | 14 | 247 | 6.4 | 14.5 | 0.00 | 0.97 | 0.00 | 72 | 1010.5 |
| 20260507010802 | 14 | 240 | 12.9 | 14.5 | 0.00 | 0.97 | 0.00 | 72 | 1010.4 |
| 20260507010700 | 14 | 220 | 9.7 | 12.9 | 0.00 | 0.97 | 0.00 | 72 | 1010.5 |
| 20260507010601 | 14 | 230 | 11.3 | 11.3 | 0.00 | 0.97 | 0.00 | 72 | 1010.5 |
| 20260507010503 | 14 | 234 | 8.0 | 11.3 | 0.00 | 0.97 | 0.00 | 72 | 1010.5 |
| 20260507010359 | 14 | 240 | 6.4 | 12.9 | 0.00 | 0.97 | 0.00 | 72 | 1010.5 |
| 20260507010259 | 14 | 236 | 11.3 | 12.9 | 0.00 | 0.97 | 0.00 | 73 | 1010.5 |
| 20260507010203 | 14 | 221 | 9.7 | 12.9 | 0.00 | 0.97 | 0.00 | 72 | 1010.4 |
| 20260507010100 | 14 | 225 | 6.4 | 12.9 | 0.00 | 0.97 | 0.00 | 72 | 1010.4 |
| 20260507010003 | 14 | 238 | 4.8 | 12.9 | 0.00 | 0.97 | 0.00 | 72 | 1010.5 |
| 20260507005902 | 14 | 263 | 8.0 | 12.9 | 0.00 | 1.07 | 0.00 | 72 | 1010.5 |
| 20260507005759 | 14 | 232 | 11.3 | 12.9 | 0.00 | 1.07 | 0.00 | 72 | 1010.5 |
| 20260507005659 | 15 | 237 | 8.0 | 12.9 | 0.00 | 1.07 | 0.00 | 72 | 1010.5 |
| 20260507005602 | 15 | 218 | 6.4 | 12.9 | 0.00 | 1.07 | 0.00 | 72 | 1010.6 |
| 20260507005500 | 15 | 230 | 11.3 | 12.9 | 0.00 | 1.07 | 0.00 | 72 | 1010.6 |
| 20260507005400 | 15 | 217 | 12.9 | 12.9 | 0.00 | 1.07 | 0.00 | 72 | 1010.6 |
| 20260507005305 | 15 | 232 | 12.9 | 12.9 | 0.00 | 1.07 | 0.00 | 72 | 1010.6 |
| 20260507005159 | 15 | 242 | 9.7 | 14.5 | 0.00 | 1.07 | 0.00 | 72 | 1010.6 |
| 20260507005059 | 15 | 205 | 6.4 | 14.5 | 0.00 | 1.07 | 0.00 | 71 | 1010.6 |
| 20260507005004 | 15 | 240 | 4.8 | 14.5 | 0.00 | 1.07 | 0.00 | 71 | 1010.6 |
| 20260507004859 | 15 | 221 | 11.3 | 14.5 | 0.00 | 1.07 | 0.00 | 71 | 1010.7 |
| 20260507004801 | 15 | 257 | 9.7 | 14.5 | 0.00 | 1.07 | 0.00 | 71 | 1010.6 |
| 20260507004704 | 15 | 240 | 8.0 | 14.5 | 0.00 | 1.07 | 0.00 | 71 | 1010.6 |
| 20260507004510 | 15 | 237 | 9.7 | 14.5 | 0.00 | 1.07 | 0.00 | 70 | 1010.6 |
| 20260507004404 | 15 | 241 | 8.0 | 14.5 | 0.00 | 1.07 | 0.00 | 70 | 1010.6 |
| 20260507004259 | 15 | 228 | 6.4 | 14.5 | 0.00 | 1.07 | 0.00 | 70 | 1010.6 |
| 20260507004102 | 15 | 244 | 6.4 | 14.5 | 0.00 | 1.07 | 0.00 | 71 | 1010.7 |
| 20260507004001 | 15 | 250 | 11.3 | 14.5 | 0.00 | 1.07 | 0.00 | 71 | 1010.7 |
| 20260507003859 | 15 | 234 | 9.7 | 14.5 | 0.00 | 1.07 | 0.00 | 71 | 1010.7 |
| 20260507003803 | 15 | 227 | 9.7 | 14.5 | 0.00 | 1.07 | 0.00 | 70 | 1010.7 |
| 20260507003700 | 15 | 234 | 11.3 | 14.5 | 0.00 | 1.07 | 0.00 | 71 | 1010.7 |
| 20260507003600 | 15 | 227 | 8.0 | 11.3 | 0.00 | 1.07 | 0.00 | 71 | 1010.7 |
| 20260507003504 | 15 | 250 | 8.0 | 11.3 | 0.00 | 1.07 | 0.00 | 70 | 1010.7 |
| 20260507003359 | 15 | 235 | 9.7 | 11.3 | 0.00 | 1.07 | 0.00 | 71 | 1010.7 |
| 20260507003259 | 15 | 226 | 6.4 | 11.3 | 0.00 | 1.07 | 0.00 | 70 | 1010.7 |
| 20260507003202 | 15 | 220 | 8.0 | 11.3 | 0.00 | 1.07 | 0.00 | 71 | 1010.7 |
| 20260507003101 | 15 | 213 | 8.0 | 11.3 | 0.00 | 1.07 | 0.00 | 71 | 1010.7 |
| 20260507003001 | 15 | 232 | 9.7 | 11.3 | 0.00 | 1.07 | 0.00 | 71 | 1010.7 |
| 20260507002800 | 15 | 235 | 6.4 | 11.3 | 0.00 | 1.07 | 0.00 | 71 | 1010.6 |
| 20260507002700 | 15 | 251 | 6.4 | 9.7 | 0.00 | 1.07 | 0.00 | 71 | 1010.6 |
| 20260507002602 | 15 | 232 | 3.2 | 9.7 | 0.00 | 1.07 | 0.00 | 70 | 1010.6 |
| 20260507002500 | 15 | 242 | 6.4 | 9.7 | 0.00 | 1.07 | 0.00 | 70 | 1010.6 |
| 20260507002359 | 15 | 255 | 4.8 | 9.7 | 0.00 | 1.07 | 0.00 | 70 | 1010.6 |
| 20260507002306 | 15 | 281 | 3.2 | 9.7 | 0.00 | 1.07 | 0.00 | 69 | 1010.6 |
| 20260507002159 | 15 | 275 | 4.8 | 9.7 | 0.00 | 1.07 | 0.00 | 69 | 1010.6 |
| 20260507002059 | 15 | 271 | 6.4 | 9.7 | 0.00 | 1.07 | 0.00 | 69 | 1010.6 |
| 20260507002004 | 15 | 290 | 6.4 | 9.7 | 0.00 | 1.07 | 0.00 | 69 | 1010.6 |
| 20260507001800 | 15 | 254 | 6.4 | 12.9 | 0.00 | 1.07 | 0.00 | 69 | 1010.5 |
| 20260507001704 | 15 | 254 | 4.8 | 17.7 | 0.00 | 1.07 | 0.00 | 68 | 1010.5 |
| 20260507001600 | 15 | 254 | 4.8 | 17.7 | 0.00 | 1.07 | 0.00 | 68 | 1010.5 |
| 20260507001501 | 15 | 254 | 4.8 | 19.3 | 0.00 | 1.07 | 0.00 | 68 | 1010.5 |
| 20260507001403 | 15 | 254 | 3.2 | 19.3 | 0.00 | 1.07 | 0.00 | 67 | 1010.5 |
| 20260507001159 | 15 | 238 | 4.8 | 19.3 | 0.00 | 1.07 | 0.00 | 68 | 1010.5 |
| 20260507001103 | 15 | 243 | 8.0 | 19.3 | 0.00 | 1.07 | 0.00 | 67 | 1010.6 |
| 20260507001001 | 15 | 231 | 3.2 | 19.3 | 0.00 | 1.07 | 0.00 | 67 | 1010.6 |
| 20260507000859 | 15 | 209 | 11.3 | 19.3 | 0.00 | 1.07 | 0.00 | 67 | 1010.5 |
| 20260507000802 | 15 | 225 | 8.0 | 19.3 | 0.00 | 1.07 | 0.00 | 67 | 1010.5 |
| 20260507000659 | 15 | 196 | 16.1 | 24.1 | 0.00 | 1.07 | 0.00 | 67 | 1010.5 |
| 20260507000600 | 15 | 190 | 16.1 | 24.1 | 0.00 | 1.07 | 0.00 | 67 | 1010.5 |
| 20260507000503 | 15 | 201 | 11.3 | 24.1 | 0.00 | 1.07 | 0.00 | 67 | 1010.5 |
| 20260507000359 | 15 | 193 | 6.4 | 24.1 | 0.00 | 1.07 | 0.00 | 67 | 1010.5 |
| 20260507000259 | 15 | 182 | 12.9 | 24.1 | 0.00 | 1.07 | 0.00 | 67 | 1010.5 |
| 20260507000204 | 15 | 159 | 11.3 | 24.1 | 0.00 | 1.07 | 0.00 | 67 | 1010.5 |
| 20260507000112 | 15 | 193 | 11.3 | 24.1 | 0.00 | 1.07 | 0.00 | 67 | 1010.5 |
| 20260507000003 | 15 | 205 | 8.0 | 24.1 | 0.00 | 1.07 | 0.00 | 67 | 1010.5 |
| 20260506235902 | 15 | 173 | 12.9 | 24.1 | 0.00 | 1.07 | 0.00 | 67 | 1010.5 |
| 20260506235800 | 15 | 198 | 19.3 | 24.1 | 0.00 | 1.07 | 0.00 | 67 | 1010.5 |
| 20260506235700 | 15 | 186 | 9.7 | 17.7 | 0.00 | 1.07 | 0.00 | 68 | 1010.5 |
| 20260506235602 | 15 | 188 | 11.3 | 17.7 | 0.00 | 1.07 | 0.00 | 68 | 1010.6 |
| 20260506235500 | 15 | 192 | 6.4 | 17.7 | 0.00 | 1.07 | 0.00 | 67 | 1010.6 |
| 20260506235400 | 15 | 201 | 11.3 | 17.7 | 0.00 | 1.07 | 0.00 | 67 | 1010.5 |
| 20260506235159 | 15 | 194 | 14.5 | 17.7 | 0.00 | 1.07 | 0.00 | 67 | 1010.5 |
| 20260506235059 | 15 | 221 | 16.1 | 19.3 | 0.00 | 1.07 | 0.00 | 68 | 1010.5 |
| 20260506235005 | 15 | 194 | 12.9 | 20.9 | 0.00 | 1.07 | 0.00 | 68 | 1010.5 |
| 20260506234859 | 15 | 185 | 4.8 | 20.9 | 0.00 | 1.07 | 0.00 | 67 | 1010.6 |
| 20260506234759 | 15 | 178 | 14.5 | 20.9 | 0.00 | 1.07 | 0.00 | 67 | 1010.6 |
| 20260506234702 | 15 | 188 | 11.3 | 20.9 | 0.00 | 1.07 | 0.00 | 67 | 1010.6 |
| 20260506234559 | 15 | 186 | 8.0 | 20.9 | 0.00 | 1.07 | 0.00 | 67 | 1010.6 |
| 20260506234403 | 15 | 159 | 4.8 | 20.9 | 0.00 | 1.07 | 0.00 | 67 | 1010.6 |
| 20260506234159 | 15 | 191 | 14.5 | 20.9 | 0.00 | 1.07 | 0.00 | 68 | 1010.6 |
| 20260506234001 | 15 | 202 | 12.9 | 17.7 | 0.00 | 1.07 | 0.00 | 68 | 1010.7 |
| 20260506233859 | 15 | 194 | 8.0 | 17.7 | 0.00 | 1.07 | 0.00 | 68 | 1010.7 |
| 20260506233802 | 15 | 204 | 11.3 | 17.7 | 0.00 | 1.07 | 0.00 | 68 | 1010.6 |
| 20260506233503 | 15 | 220 | 11.3 | 17.7 | 0.00 | 1.07 | 0.00 | 68 | 1010.7 |
| 20260506233300 | 15 | 202 | 6.4 | 17.7 | 0.00 | 1.07 | 0.00 | 69 | 1010.7 |
| 20260506233202 | 15 | 262 | 6.4 | 17.7 | 0.00 | 1.07 | 0.00 | 69 | 1010.7 |
| 20260506233100 | 15 | 248 | 6.4 | 17.7 | 0.00 | 1.07 | 0.00 | 69 | 1010.7 |
| 20260506233004 | 15 | 269 | 6.4 | 19.3 | 0.00 | 1.07 | 0.00 | 69 | 1010.7 |
| 20260506232904 | 15 | 267 | 8.0 | 19.3 | 0.00 | 1.07 | 0.00 | 69 | 1010.7 |
| 20260506232800 | 15 | 247 | 3.2 | 19.3 | 0.00 | 1.07 | 0.00 | 69 | 1010.8 |
| 20260506232701 | 15 | 256 | 3.2 | 19.3 | 0.00 | 1.07 | 0.00 | 70 | 1010.8 |
| 20260506232500 | 15 | 232 | 11.3 | 19.3 | 0.00 | 1.07 | 0.00 | 70 | 1010.7 |
| 20260506232359 | 15 | 250 | 6.4 | 20.9 | 0.00 | 1.07 | 0.00 | 70 | 1010.7 |
| 20260506232306 | 15 | 216 | 6.4 | 20.9 | 0.00 | 1.07 | 0.00 | 70 | 1010.7 |
| 20260506232159 | 16 | 212 | 8.0 | 20.9 | 0.00 | 1.07 | 0.00 | 70 | 1010.7 |
| 20260506232059 | 16 | 228 | 9.7 | 20.9 | 0.00 | 1.07 | 0.00 | 70 | 1010.7 |
| 20260506232005 | 16 | 227 | 17.7 | 20.9 | 0.00 | 1.07 | 0.00 | 70 | 1010.7 |
| 20260506231859 | 16 | 218 | 11.3 | 25.7 | 0.00 | 1.07 | 0.00 | 70 | 1010.7 |
| 20260506231800 | 16 | 240 | 12.9 | 25.7 | 0.00 | 1.07 | 0.00 | 69 | 1010.6 |
| 20260506231702 | 16 | 202 | 9.7 | 29.0 | 0.00 | 1.07 | 0.00 | 69 | 1010.6 |
| 20260506231502 | 16 | 209 | 14.5 | 29.0 | 0.00 | 1.07 | 0.00 | 69 | 1010.6 |
| 20260506231407 | 16 | 206 | 11.3 | 33.8 | 0.00 | 1.07 | 0.00 | 69 | 1010.6 |
| 20260506231200 | 16 | 191 | 16.1 | 33.8 | 0.00 | 1.07 | 0.00 | 69 | 1010.5 |
| 20260506231103 | 16 | 207 | 11.3 | 33.8 | 0.00 | 1.07 | 0.00 | 69 | 1010.5 |
| 20260506231000 | 16 | 197 | 16.1 | 33.8 | 0.00 | 1.07 | 0.00 | 69 | 1010.6 |
| 20260506230900 | 16 | 190 | 16.1 | 33.8 | 0.00 | 1.07 | 0.00 | 69 | 1010.6 |
| 20260506230802 | 16 | 200 | 16.1 | 33.8 | 0.00 | 1.07 | 0.00 | 70 | 1010.6 |
| 20260506230601 | 16 | 211 | 17.7 | 33.8 | 0.00 | 1.07 | 0.00 | 71 | 1010.7 |
| 20260506230506 | 16 | 205 | 17.7 | 33.8 | 0.00 | 1.07 | 0.00 | 71 | 1010.7 |
| 20260506230359 | 16 | 182 | 24.1 | 32.2 | 0.00 | 1.07 | 0.00 | 71 | 1010.6 |
| 20260506230259 | 16 | 192 | 12.9 | 32.2 | 0.00 | 1.07 | 0.00 | 72 | 1010.7 |
| 20260506230003 | 16 | 187 | 14.5 | 37.0 | 0.00 | 1.07 | 0.00 | 72 | 1010.6 |
| 20260506225902 | 16 | 200 | 12.9 | 37.0 | 0.00 | 1.09 | 0.00 | 72 | 1010.6 |
| 20260506225759 | 16 | 227 | 17.7 | 37.0 | 0.00 | 1.09 | 0.00 | 72 | 1010.7 |
| 20260506225602 | 16 | 217 | 29.0 | 37.0 | 0.00 | 1.09 | 0.00 | 72 | 1010.6 |
| 20260506225500 | 16 | 230 | 20.9 | 37.0 | 0.00 | 1.09 | 0.00 | 72 | 1010.7 |
| 20260506225400 | 16 | 224 | 24.1 | 37.0 | 0.00 | 1.09 | 0.00 | 72 | 1010.6 |
| 20260506225159 | 16 | 216 | 29.0 | 37.0 | 0.00 | 1.09 | 0.00 | 72 | 1010.5 |
| 20260506225100 | 16 | 225 | 33.8 | 37.0 | 0.00 | 1.09 | 0.00 | 72 | 1010.5 |
| 20260506225004 | 16 | 232 | 20.9 | 37.0 | 0.00 | 1.09 | 0.00 | 72 | 1010.5 |
| 20260506224900 | 16 | 217 | 32.2 | 37.0 | 0.00 | 1.09 | 0.00 | 72 | 1010.5 |
| 20260506224705 | 16 | 229 | 24.1 | 38.6 | 0.00 | 1.09 | 0.00 | 72 | 1010.5 |
| 20260506224600 | 16 | 198 | 32.2 | 38.6 | 0.00 | 1.09 | 0.00 | 72 | 1010.5 |
| 20260506224500 | 16 | 217 | 33.8 | 38.6 | 0.00 | 1.09 | 0.00 | 73 | 1010.5 |
| 20260506224402 | 16 | 187 | 16.1 | 38.6 | 0.00 | 1.09 | 0.00 | 73 | 1010.5 |
| 20260506224200 | 16 | 196 | 20.9 | 38.6 | 0.00 | 1.09 | 0.00 | 72 | 1010.5 |
| 20260506224102 | 16 | 218 | 29.0 | 38.6 | 0.00 | 1.09 | 0.00 | 72 | 1010.5 |
| 20260506223659 | 16 | 217 | 27.4 | 35.4 | 0.00 | 1.09 | 0.00 | 72 | 1010.4 |
| 20260506223600 | 16 | 225 | 27.4 | 35.4 | 0.00 | 1.09 | 0.00 | 73 | 1010.4 |
| 20260506223504 | 16 | 227 | 25.7 | 35.4 | 0.00 | 1.09 | 0.00 | 73 | 1010.4 |
| 20260506223401 | 16 | 210 | 19.3 | 35.4 | 0.00 | 1.09 | 0.00 | 73 | 1010.5 |
| 20260506223306 | 16 | 211 | 12.9 | 35.4 | 0.00 | 1.09 | 0.00 | 73 | 1010.5 |
| 20260506223202 | 16 | 226 | 17.7 | 35.4 | 0.00 | 1.09 | 0.00 | 73 | 1010.4 |
| 20260506223059 | 16 | 212 | 30.6 | 35.4 | 0.00 | 1.09 | 0.00 | 73 | 1010.4 |
| 20260506223002 | 16 | 190 | 22.5 | 35.4 | 0.00 | 1.09 | 0.00 | 73 | 1010.4 |
| 20260506222906 | 16 | 197 | 19.3 | 35.4 | 0.00 | 1.09 | 0.00 | 73 | 1010.4 |
| 20260506222800 | 16 | 204 | 16.1 | 33.8 | 0.00 | 1.09 | 0.00 | 73 | 1010.4 |
| 20260506222605 | 16 | 192 | 11.3 | 33.8 | 0.00 | 1.09 | 0.00 | 73 | 1010.5 |
| 20260506222500 | 16 | 216 | 17.7 | 33.8 | 0.03 | 1.09 | 0.00 | 73 | 1010.5 |
| 20260506222400 | 16 | 193 | 17.7 | 33.8 | 0.03 | 1.09 | 0.00 | 73 | 1010.5 |
| 20260506222305 | 16 | 215 | 14.5 | 33.8 | 0.03 | 1.09 | 0.00 | 72 | 1010.5 |
| 20260506222203 | 16 | 202 | 19.3 | 33.8 | 0.03 | 1.09 | 0.00 | 72 | 1010.5 |
| 20260506222059 | 16 | 201 | 19.3 | 33.8 | 0.03 | 1.09 | 0.00 | 72 | 1010.5 |
| 20260506222005 | 16 | 213 | 25.7 | 33.8 | 0.03 | 1.09 | 0.00 | 72 | 1010.5 |
| 20260506221900 | 16 | 206 | 20.9 | 33.8 | 0.03 | 1.09 | 0.00 | 72 | 1010.6 |
| 20260506221759 | 16 | 221 | 19.3 | 38.6 | 0.03 | 1.09 | 0.00 | 72 | 1010.5 |
| 20260506221703 | 16 | 212 | 17.7 | 38.6 | 0.03 | 1.09 | 0.00 | 72 | 1010.5 |
| 20260506221600 | 16 | 207 | 19.3 | 38.6 | 0.03 | 1.09 | 0.00 | 72 | 1010.6 |
| 20260506221501 | 16 | 207 | 22.5 | 38.6 | 0.03 | 1.09 | 0.00 | 71 | 1010.4 |
| 20260506221402 | 16 | 194 | 32.2 | 38.6 | 0.03 | 1.09 | 0.00 | 71 | 1010.4 |
| 20260506221300 | 16 | 189 | 20.9 | 38.6 | 0.03 | 1.09 | 0.00 | 71 | 1010.5 |
| 20260506221103 | 16 | 194 | 20.9 | 38.6 | 0.03 | 1.09 | 0.00 | 70 | 1010.4 |
| 20260506220859 | 16 | 201 | 27.4 | 38.6 | 0.03 | 1.09 | 0.00 | 70 | 1010.4 |
| 20260506220559 | 16 | 207 | 27.4 | 38.6 | 0.03 | 1.09 | 0.00 | 70 | 1010.3 |
| 20260506220359 | 16 | 223 | 33.8 | 40.2 | 0.03 | 1.09 | 0.00 | 70 | 1010.3 |
| 20260506220259 | 16 | 218 | 29.0 | 40.2 | 0.03 | 1.09 | 0.00 | 70 | 1010.3 |
| 20260506220204 | 16 | 185 | 32.2 | 40.2 | 0.03 | 1.09 | 0.00 | 70 | 1010.3 |
| 20260506220118 | 16 | 221 | 35.4 | 40.2 | 0.03 | 1.09 | 0.00 | 70 | 1010.4 |
| 20260506220006 | 16 | 202 | 24.1 | 40.2 | 0.03 | 1.09 | 0.00 | 70 | 1010.4 |
| 20260506215803 | 16 | 217 | 29.0 | 40.2 | 0.03 | 1.09 | 1.09 | 69 | 1010.4 |
| 20260506215700 | 16 | 215 | 32.2 | 40.2 | 0.03 | 1.09 | 1.09 | 69 | 1010.4 |
| 20260506215603 | 16 | 219 | 33.8 | 40.2 | 0.03 | 1.09 | 1.09 | 70 | 1010.4 |
| 20260506215400 | 16 | 180 | 22.5 | 35.4 | 0.03 | 1.09 | 1.09 | 70 | 1010.4 |
| 20260506215305 | 16 | 213 | 24.1 | 35.4 | 0.03 | 1.09 | 1.09 | 70 | 1010.4 |
| 20260506215202 | 16 | 222 | 22.5 | 35.4 | 0.03 | 1.09 | 1.09 | 70 | 1010.4 |
| 20260506215004 | 15 | 218 | 25.7 | 33.8 | 0.03 | 1.09 | 1.09 | 71 | 1010.4 |
| 20260506214902 | 15 | 208 | 16.1 | 33.8 | 0.03 | 1.09 | 1.09 | 71 | 1010.4 |
| 20260506214704 | 15 | 208 | 19.3 | 33.8 | 0.03 | 1.09 | 1.09 | 72 | 1010.4 |
| 20260506214602 | 15 | 192 | 27.4 | 33.8 | 0.03 | 1.09 | 1.09 | 72 | 1010.5 |
| 20260506214501 | 15 | 220 | 19.3 | 33.8 | 0.03 | 1.09 | 1.09 | 73 | 1010.5 |
| 20260506214403 | 15 | 213 | 27.4 | 33.8 | 0.03 | 1.09 | 1.09 | 73 | 1010.5 |
| 20260506214201 | 15 | 205 | 14.5 | 35.4 | 0.03 | 1.09 | 1.09 | 75 | 1010.5 |
| 20260506214103 | 15 | 181 | 22.5 | 35.4 | 0.03 | 1.09 | 1.09 | 75 | 1010.5 |
| 20260506214007 | 15 | 221 | 24.1 | 35.4 | 0.03 | 1.09 | 1.09 | 75 | 1010.5 |
| 20260506213901 | 15 | 213 | 22.5 | 35.4 | 0.03 | 1.09 | 1.09 | 76 | 1010.5 |
| 20260506213803 | 15 | 223 | 14.5 | 35.4 | 0.03 | 1.09 | 1.09 | 76 | 1010.5 |
| 20260506213703 | 15 | 205 | 16.1 | 35.4 | 0.03 | 1.09 | 1.09 | 76 | 1010.5 |
| 20260506213602 | 15 | 215 | 22.5 | 35.4 | 0.03 | 1.09 | 1.09 | 76 | 1010.4 |
| 20260506213505 | 15 | 212 | 29.0 | 30.6 | 0.03 | 1.09 | 1.09 | 76 | 1010.5 |
| 20260506213402 | 15 | 200 | 22.5 | 30.6 | 0.03 | 1.09 | 1.09 | 76 | 1010.5 |
| 20260506213301 | 15 | 213 | 19.3 | 30.6 | 0.03 | 1.09 | 1.09 | 77 | 1010.5 |
| 20260506213219 | 15 | 214 | 16.1 | 30.6 | 0.03 | 1.09 | 1.09 | 76 | 1010.5 |
| 20260506213103 | 15 | 214 | 16.1 | 30.6 | 0.03 | 1.09 | 1.09 | 76 | 1010.4 |
| 20260506213002 | 15 | 221 | 32.2 | 32.2 | 0.03 | 1.09 | 1.09 | 76 | 1010.4 |
| 20260506212903 | 15 | 212 | 14.5 | 35.4 | 0.03 | 1.09 | 1.09 | 76 | 1010.4 |
| 20260506212804 | 15 | 225 | 17.7 | 35.4 | 0.03 | 1.09 | 1.09 | 76 | 1010.4 |
| 20260506212701 | 15 | 220 | 19.3 | 35.4 | 0.03 | 1.09 | 1.09 | 75 | 1010.4 |
| 20260506212608 | 15 | 214 | 24.1 | 35.4 | 0.03 | 1.09 | 1.09 | 75 | 1010.4 |
| 20260506212504 | 15 | 218 | 22.5 | 35.4 | 0.00 | 1.07 | 1.07 | 75 | 1010.4 |
| 20260506212400 | 16 | 209 | 29.0 | 35.4 | 0.00 | 1.07 | 1.07 | 75 | 1010.5 |
| 20260506212307 | 16 | 208 | 12.9 | 35.4 | 0.00 | 1.07 | 1.07 | 75 | 1010.5 |
| 20260506212107 | 16 | 217 | 24.1 | 35.4 | 0.00 | 1.07 | 1.07 | 73 | 1010.3 |
| 20260506212005 | 16 | 221 | 22.5 | 35.4 | 0.00 | 1.07 | 1.07 | 73 | 1010.3 |
| 20260506211902 | 16 | 209 | 22.5 | 33.8 | 0.00 | 1.07 | 1.07 | 74 | 1010.4 |
| 20260506211800 | 16 | 221 | 14.5 | 37.0 | 0.00 | 1.07 | 1.07 | 73 | 1010.4 |
| 20260506211708 | 16 | 200 | 17.7 | 37.0 | 0.00 | 1.07 | 1.07 | 73 | 1010.4 |
| 20260506211603 | 16 | 183 | 27.4 | 37.0 | 0.00 | 1.07 | 1.07 | 73 | 1010.4 |
| 20260506211501 | 16 | 188 | 22.5 | 37.0 | 0.00 | 1.07 | 1.07 | 72 | 1010.4 |
| 20260506211403 | 16 | 238 | 20.9 | 37.0 | 0.00 | 1.07 | 1.07 | 72 | 1010.4 |
| 20260506211304 | 16 | 203 | 25.7 | 37.0 | 0.00 | 1.07 | 1.07 | 71 | 1010.4 |
| 20260506211200 | 16 | 194 | 27.4 | 37.0 | 0.00 | 1.07 | 1.07 | 71 | 1010.4 |
| 20260506211104 | 16 | 200 | 20.9 | 37.0 | 0.00 | 1.07 | 1.07 | 71 | 1010.4 |
| 20260506211003 | 16 | 211 | 25.7 | 37.0 | 0.00 | 1.07 | 1.07 | 71 | 1010.3 |
| 20260506210901 | 16 | 209 | 33.8 | 37.0 | 0.00 | 1.07 | 1.07 | 70 | 1010.3 |
| 20260506210703 | 16 | 203 | 19.3 | 37.0 | 0.00 | 1.07 | 1.07 | 70 | 1010.3 |
| 20260506210601 | 16 | 184 | 29.0 | 37.0 | 0.00 | 1.07 | 1.07 | 70 | 1010.3 |
| 20260506210504 | 16 | 187 | 20.9 | 37.0 | 0.00 | 1.07 | 1.07 | 70 | 1010.3 |
| 20260506210300 | 16 | 200 | 32.2 | 37.0 | 0.00 | 1.07 | 1.07 | 70 | 1010.2 |
| 20260506205904 | 16 | 184 | 29.0 | 32.2 | 0.00 | 1.07 | 1.07 | 72 | 1010.2 |
| 20260506205802 | 16 | 203 | 20.9 | 27.4 | 0.00 | 1.07 | 1.07 | 72 | 1010.3 |
| 20260506205701 | 16 | 174 | 20.9 | 29.0 | 0.00 | 1.07 | 1.07 | 73 | 1010.3 |
| 20260506205603 | 16 | 199 | 17.7 | 29.0 | 0.00 | 1.07 | 1.07 | 73 | 1010.3 |
| 20260506205503 | 16 | 204 | 20.9 | 27.4 | 0.00 | 1.07 | 1.07 | 74 | 1010.3 |
| 20260506205100 | 16 | 207 | 19.3 | 27.4 | 0.00 | 1.07 | 1.07 | 74 | 1010.3 |
| 20260506204903 | 16 | 192 | 9.7 | 27.4 | 0.00 | 1.07 | 1.07 | 74 | 1010.2 |
| 20260506204800 | 16 | 208 | 12.9 | 27.4 | 0.00 | 1.07 | 1.07 | 75 | 1010.3 |
| 20260506204703 | 16 | 178 | 16.1 | 22.5 | 0.00 | 1.07 | 1.07 | 75 | 1010.3 |
| 20260506204603 | 16 | 186 | 17.7 | 24.1 | 0.00 | 1.07 | 1.07 | 76 | 1010.2 |
| 20260506204500 | 16 | 180 | 9.7 | 24.1 | 0.00 | 1.07 | 1.07 | 75 | 1010.3 |
| 20260506204302 | 16 | 171 | 6.4 | 24.1 | 0.00 | 1.07 | 1.07 | 76 | 1010.3 |
| 20260506204200 | 16 | 185 | 14.5 | 24.1 | 0.00 | 1.07 | 1.07 | 76 | 1010.3 |
| 20260506204103 | 16 | 199 | 11.3 | 27.4 | 0.00 | 1.07 | 1.07 | 77 | 1010.3 |
| 20260506203900 | 16 | 188 | 20.9 | 27.4 | 0.00 | 1.07 | 1.07 | 76 | 1010.3 |
| 20260506203803 | 16 | 174 | 11.3 | 27.4 | 0.00 | 1.07 | 1.07 | 76 | 1010.4 |
| 20260506203703 | 16 | 166 | 14.5 | 27.4 | 0.00 | 1.07 | 1.07 | 77 | 1010.4 |
| 20260506203503 | 16 | 171 | 22.5 | 27.4 | 0.00 | 1.07 | 1.07 | 77 | 1010.3 |
| 20260506203403 | 16 | 165 | 11.3 | 27.4 | 0.00 | 1.07 | 1.07 | 77 | 1010.3 |
| 20260506203301 | 16 | 191 | 16.1 | 27.4 | 0.00 | 1.07 | 1.07 | 77 | 1010.3 |
| 20260506203206 | 16 | 188 | 24.1 | 27.4 | 0.00 | 1.07 | 1.07 | 78 | 1010.3 |
| 20260506203105 | 16 | 168 | 8.0 | 16.1 | 0.00 | 1.07 | 1.07 | 78 | 1010.3 |
| 20260506203003 | 16 | 170 | 6.4 | 14.5 | 0.00 | 1.07 | 1.07 | 79 | 1010.3 |
| 20260506202904 | 16 | 176 | 11.3 | 14.5 | 0.00 | 1.07 | 1.07 | 79 | 1010.3 |
| 20260506202803 | 16 | 174 | 12.9 | 16.1 | 0.00 | 1.07 | 1.07 | 79 | 1010.3 |
| 20260506202702 | 16 | 167 | 4.8 | 14.5 | 0.00 | 1.07 | 1.07 | 80 | 1010.3 |
| 20260506202608 | 15 | 162 | 4.8 | 12.9 | 0.00 | 1.07 | 1.07 | 80 | 1010.3 |
| 20260506202506 | 15 | 180 | 8.0 | 11.3 | 0.00 | 1.07 | 1.07 | 80 | 1010.3 |
| 20260506202402 | 15 | 204 | 6.4 | 11.3 | 0.00 | 1.07 | 1.07 | 80 | 1010.3 |
| 20260506202317 | 15 | 175 | 6.4 | 11.3 | 0.00 | 1.07 | 1.07 | 80 | 1010.3 |
| 20260506202205 | 15 | 178 | 9.7 | 11.3 | 0.00 | 1.07 | 1.07 | 80 | 1010.4 |
| 20260506201906 | 15 | 171 | 4.8 | 11.3 | 0.00 | 1.07 | 1.07 | 81 | 1010.4 |
| 20260506201802 | 15 | 164 | 6.4 | 11.3 | 0.00 | 1.07 | 1.07 | 81 | 1010.3 |
| 20260506201704 | 15 | 173 | 9.7 | 11.3 | 0.00 | 1.07 | 1.07 | 81 | 1010.3 |
| 20260506201604 | 15 | 140 | 6.4 | 11.3 | 0.00 | 1.07 | 1.07 | 81 | 1010.3 |
| 20260506201505 | 15 | 161 | 3.2 | 8.0 | 0.00 | 1.07 | 1.07 | 80 | 1010.3 |
| 20260506201201 | 15 | 161 | 4.8 | 8.0 | 0.00 | 1.07 | 1.07 | 80 | 1010.1 |
| 20260506201104 | 15 | 161 | 3.2 | 8.0 | 0.00 | 1.07 | 1.07 | 81 | 1010.1 |
| 20260506201004 | 15 | 142 | 3.2 | 8.0 | 0.00 | 1.07 | 1.07 | 81 | 1010.2 |
| 20260506200803 | 15 | 190 | 3.2 | 11.3 | 0.00 | 1.07 | 1.07 | 81 | 1010.2 |
| 20260506200706 | 15 | 169 | 6.4 | 11.3 | 0.00 | 1.07 | 1.07 | 81 | 1010.2 |
| 20260506200602 | 15 | 167 | 3.2 | 11.3 | 0.00 | 1.07 | 1.07 | 81 | 1010.2 |
| 20260506200506 | 15 | 199 | 4.8 | 11.3 | 0.00 | 1.07 | 1.07 | 81 | 1010.2 |
| 20260506200302 | 15 | 187 | 6.4 | 11.3 | 0.00 | 1.07 | 1.07 | 81 | 1010.2 |
| 20260506200209 | 15 | 180 | 3.2 | 11.3 | 0.00 | 1.07 | 1.07 | 81 | 1010.2 |
| 20260506200131 | 15 | 178 | 4.8 | 11.3 | 0.00 | 1.07 | 1.07 | 82 | 1010.1 |
| 20260506200008 | 15 | 159 | 4.8 | 11.3 | 0.00 | 1.07 | 1.07 | 82 | 1010.1 |
| 20260506195907 | 15 | 200 | 4.8 | 9.7 | 0.00 | 1.07 | 1.07 | 82 | 1010.1 |
| 20260506195801 | 15 | 177 | 3.2 | 9.7 | 0.00 | 1.07 | 1.07 | 82 | 1010.1 |
| 20260506195704 | 15 | 177 | 3.2 | 9.7 | 0.00 | 1.07 | 1.07 | 82 | 1010.1 |
| 20260506195605 | 15 | 177 | 3.2 | 9.7 | 0.00 | 1.07 | 1.07 | 82 | 1010.1 |
| 20260506195500 | 15 | 192 | 3.2 | 14.5 | 0.00 | 1.07 | 1.07 | 82 | 1010.1 |
| 20260506195309 | 15 | 196 | 4.8 | 14.5 | 0.00 | 1.07 | 1.07 | 82 | 1010.1 |
| 20260506194804 | 15 | 178 | 3.2 | 14.5 | 0.00 | 1.07 | 1.07 | 82 | 1010.0 |
| 20260506194705 | 15 | 167 | 4.8 | 14.5 | 0.00 | 1.07 | 1.07 | 82 | 1009.9 |
| 20260506194603 | 15 | 192 | 9.7 | 14.5 | 0.00 | 1.07 | 1.07 | 82 | 1010.0 |
| 20260506194502 | 15 | 159 | 9.7 | 12.9 | 0.00 | 1.07 | 1.07 | 82 | 1009.9 |
| 20260506194425 | 15 | 178 | 8.0 | 12.9 | 0.00 | 1.07 | 1.07 | 82 | 1009.9 |
| 20260506194303 | 15 | 148 | 6.4 | 12.9 | 0.00 | 1.07 | 1.07 | 82 | 1009.9 |
| 20260506194202 | 15 | 169 | 6.4 | 12.9 | 0.00 | 1.07 | 1.07 | 82 | 1009.9 |
| 20260506194101 | 15 | 182 | 6.4 | 11.3 | 0.00 | 1.07 | 1.07 | 82 | 1009.9 |
| 20260506194031 | 15 | 173 | 6.4 | 11.3 | 0.00 | 1.07 | 1.07 | 82 | 1009.9 |
| 20260506193905 | 15 | 189 | 6.4 | 12.9 | 0.00 | 1.07 | 1.07 | 83 | 1009.8 |
| 20260506193605 | 15 | 175 | 8.0 | 12.9 | 0.00 | 1.07 | 1.07 | 83 | 1009.8 |
| 20260506193505 | 15 | 177 | 4.8 | 12.9 | 0.00 | 1.07 | 1.07 | 83 | 1009.8 |
| 20260506193405 | 15 | 157 | 8.0 | 12.9 | 0.00 | 1.07 | 1.07 | 83 | 1009.8 |
| 20260506193302 | 15 | 160 | 3.2 | 12.9 | 0.00 | 1.07 | 1.07 | 83 | 1009.7 |
| 20260506193202 | 15 | 167 | 6.4 | 12.9 | 0.00 | 1.07 | 1.07 | 83 | 1009.7 |
| 20260506193003 | 15 | 177 | 9.7 | 14.5 | 0.00 | 1.07 | 1.07 | 83 | 1009.6 |
| 20260506192823 | 15 | 193 | 8.0 | 14.5 | 0.00 | 1.07 | 1.07 | 83 | 1009.6 |
| 20260506192702 | 15 | 179 | 6.4 | 14.5 | 0.00 | 1.07 | 1.07 | 83 | 1009.6 |
| 20260506192606 | 15 | 182 | 9.7 | 16.1 | 0.00 | 1.07 | 1.07 | 83 | 1009.6 |
| 20260506192518 | 15 | 185 | 6.4 | 16.1 | 0.00 | 1.07 | 1.07 | 83 | 1009.6 |
| 20260506192401 | 15 | 167 | 3.2 | 16.1 | 0.00 | 1.07 | 1.07 | 83 | 1009.6 |
| 20260506192305 | 15 | 192 | 4.8 | 16.1 | 0.00 | 1.07 | 1.07 | 83 | 1009.6 |
| 20260506192104 | 15 | 175 | 9.7 | 16.1 | 0.00 | 1.07 | 1.07 | 84 | 1009.6 |
| 20260506191912 | 15 | 164 | 4.8 | 17.7 | 0.00 | 1.07 | 1.07 | 84 | 1009.6 |
| 20260506191802 | 15 | 174 | 12.9 | 17.7 | 0.00 | 1.07 | 1.07 | 84 | 1009.5 |
| 20260506191703 | 15 | 161 | 6.4 | 17.7 | 0.00 | 1.07 | 1.07 | 84 | 1009.5 |
| 20260506191502 | 15 | 171 | 6.4 | 20.9 | 0.00 | 1.07 | 1.07 | 84 | 1009.5 |
| 20260506191406 | 15 | 153 | 8.0 | 20.9 | 0.00 | 1.07 | 1.07 | 84 | 1009.5 |
| 20260506191305 | 15 | 179 | 6.4 | 20.9 | 0.00 | 1.07 | 1.07 | 84 | 1009.5 |
| 20260506191101 | 15 | 191 | 14.5 | 20.9 | 0.00 | 1.07 | 1.07 | 84 | 1009.5 |
| 20260506191026 | 15 | 189 | 9.7 | 20.9 | 0.00 | 1.07 | 1.07 | 84 | 1009.5 |
| 20260506190921 | 15 | 184 | 12.9 | 20.9 | 0.00 | 1.07 | 1.07 | 84 | 1009.5 |
| 20260506190804 | 15 | 182 | 9.7 | 20.9 | 0.00 | 1.07 | 1.07 | 84 | 1009.5 |
| 20260506190602 | 15 | 163 | 11.3 | 20.9 | 0.00 | 1.07 | 1.07 | 84 | 1009.5 |
| 20260506190502 | 15 | 178 | 8.0 | 20.9 | 0.00 | 1.07 | 1.07 | 84 | 1009.5 |
| 20260506190405 | 15 | 159 | 8.0 | 20.9 | 0.00 | 1.07 | 1.07 | 84 | 1009.4 |
| 20260506190302 | 15 | 184 | 20.9 | 20.9 | 0.00 | 1.07 | 1.07 | 84 | 1009.4 |
| 20260506190205 | 15 | 184 | 20.9 | 20.9 | 0.00 | 1.07 | 1.07 | 84 | 1009.4 |
| 20260506190107 | 15 | 186 | 14.5 | 19.3 | 0.00 | 1.07 | 1.07 | 84 | 1009.4 |
| 20260506190005 | 15 | 180 | 4.8 | 19.3 | 0.00 | 1.07 | 1.07 | 84 | 1009.3 |
| 20260506185908 | 15 | 175 | 12.9 | 19.3 | 0.00 | 1.07 | 1.07 | 84 | 1009.4 |
| 20260506185723 | 15 | 187 | 6.4 | 16.1 | 0.00 | 1.07 | 1.07 | 84 | 1009.3 |
| 20260506185615 | 15 | 170 | 12.9 | 16.1 | 0.00 | 1.07 | 1.07 | 84 | 1009.3 |
| 20260506185403 | 15 | 177 | 6.4 | 14.5 | 0.00 | 1.07 | 1.07 | 83 | 1009.2 |
| 20260506185302 | 15 | 155 | 8.0 | 14.5 | 0.00 | 1.07 | 1.07 | 83 | 1009.2 |
| 20260506185203 | 15 | 175 | 6.4 | 11.3 | 0.00 | 1.07 | 1.07 | 83 | 1009.1 |
| 20260506185114 | 15 | 186 | 6.4 | 16.1 | 0.00 | 1.07 | 1.07 | 83 | 1009.1 |
| 20260506185003 | 15 | 178 | 9.7 | 16.1 | 0.00 | 1.07 | 1.07 | 83 | 1009.1 |
| 20260506184905 | 15 | 180 | 9.7 | 16.1 | 0.00 | 1.07 | 1.07 | 83 | 1009.1 |
| 20260506184804 | 15 | 180 | 4.8 | 16.1 | 0.00 | 1.07 | 1.07 | 83 | 1009.0 |
| 20260506184704 | 15 | 150 | 9.7 | 16.1 | 0.00 | 1.07 | 1.07 | 84 | 1009.0 |
| 20260506184608 | 15 | 165 | 6.4 | 16.1 | 0.00 | 1.07 | 1.07 | 83 | 1008.9 |
| 20260506184403 | 15 | 171 | 6.4 | 16.1 | 0.00 | 1.07 | 1.07 | 83 | 1009.0 |
| 20260506184307 | 15 | 157 | 4.8 | 17.7 | 0.00 | 1.07 | 1.07 | 83 | 1009.0 |
| 20260506184202 | 15 | 155 | 8.0 | 17.7 | 0.00 | 1.07 | 1.07 | 83 | 1009.0 |
| 20260506184102 | 15 | 152 | 16.1 | 17.7 | 0.00 | 1.07 | 1.07 | 83 | 1009.0 |
| 20260506183907 | 15 | 171 | 8.0 | 17.7 | 0.00 | 1.07 | 1.07 | 83 | 1009.0 |
| 20260506183801 | 15 | 163 | 3.2 | 17.7 | 0.00 | 1.07 | 1.07 | 83 | 1008.9 |
| 20260506183704 | 15 | 176 | 8.0 | 17.7 | 0.00 | 1.07 | 1.07 | 83 | 1008.9 |
| 20260506183606 | 15 | 176 | 12.9 | 17.7 | 0.00 | 1.07 | 1.07 | 83 | 1008.9 |
| 20260506183503 | 15 | 184 | 6.4 | 17.7 | 0.00 | 1.07 | 1.07 | 83 | 1008.9 |
| 20260506183401 | 15 | 186 | 8.0 | 17.7 | 0.00 | 1.07 | 1.07 | 83 | 1008.9 |
| 20260506183201 | 15 | 173 | 14.5 | 17.7 | 0.00 | 1.07 | 1.07 | 83 | 1008.9 |
| 20260506183101 | 15 | 194 | 9.7 | 17.7 | 0.00 | 1.07 | 1.07 | 83 | 1008.9 |
| 20260506183032 | 15 | 173 | 6.4 | 17.7 | 0.00 | 1.07 | 1.07 | 83 | 1008.9 |
| 20260506182801 | 15 | 185 | 3.2 | 16.1 | 0.00 | 1.07 | 1.07 | 83 | 1008.9 |
| 20260506182706 | 15 | 149 | 8.0 | 20.9 | 0.00 | 1.07 | 1.07 | 83 | 1008.9 |
| 20260506182502 | 15 | 171 | 11.3 | 20.9 | 0.00 | 1.07 | 1.07 | 83 | 1008.8 |
| 20260506182405 | 15 | 175 | 6.4 | 20.9 | 0.00 | 1.07 | 1.07 | 83 | 1008.8 |
| 20260506182307 | 15 | 162 | 4.8 | 20.9 | 0.03 | 1.07 | 1.07 | 83 | 1008.9 |
| 20260506182202 | 15 | 159 | 12.9 | 20.9 | 0.03 | 1.07 | 1.07 | 83 | 1008.9 |
| 20260506182106 | 15 | 158 | 6.4 | 20.9 | 0.03 | 1.07 | 1.07 | 83 | 1008.9 |
| 20260506182003 | 15 | 177 | 6.4 | 20.9 | 0.03 | 1.07 | 1.07 | 83 | 1008.9 |
| 20260506181919 | 15 | 177 | 11.3 | 20.9 | 0.03 | 1.07 | 1.07 | 83 | 1008.9 |
| 20260506181804 | 16 | 174 | 9.7 | 20.9 | 0.03 | 1.07 | 1.07 | 83 | 1008.9 |
| 20260506181704 | 16 | 157 | 9.7 | 17.7 | 0.03 | 1.07 | 1.07 | 83 | 1008.9 |
| 20260506181605 | 16 | 150 | 8.0 | 17.7 | 0.03 | 1.07 | 1.07 | 83 | 1008.9 |
| 20260506181505 | 16 | 170 | 9.7 | 17.7 | 0.03 | 1.07 | 1.07 | 83 | 1008.9 |
| 20260506181404 | 16 | 169 | 12.9 | 17.7 | 0.03 | 1.07 | 1.07 | 82 | 1008.9 |
| 20260506181303 | 16 | 199 | 9.7 | 17.7 | 0.03 | 1.07 | 1.07 | 82 | 1008.9 |
| 20260506181207 | 16 | 196 | 9.7 | 17.7 | 0.03 | 1.07 | 1.07 | 82 | 1008.9 |
| 20260506181102 | 16 | 191 | 16.1 | 17.7 | 0.03 | 1.07 | 1.07 | 82 | 1008.9 |
| 20260506181004 | 16 | 189 | 11.3 | 14.5 | 0.03 | 1.07 | 1.07 | 82 | 1009.0 |
| 20260506180905 | 16 | 178 | 9.7 | 17.7 | 0.03 | 1.07 | 1.07 | 82 | 1009.0 |
| 20260506180805 | 16 | 180 | 14.5 | 17.7 | 0.03 | 1.07 | 1.07 | 82 | 1008.9 |
| 20260506180702 | 16 | 181 | 11.3 | 17.7 | 0.03 | 1.07 | 1.07 | 82 | 1008.9 |
| 20260506180621 | 16 | 182 | 8.0 | 17.7 | 0.03 | 1.07 | 1.07 | 81 | 1008.9 |
| 20260506180524 | 16 | 183 | 11.3 | 19.3 | 0.03 | 1.07 | 1.07 | 81 | 1008.9 |
| 20260506180401 | 16 | 184 | 9.7 | 22.5 | 0.03 | 1.07 | 1.07 | 81 | 1008.8 |
| 20260506180301 | 16 | 176 | 9.7 | 22.5 | 0.03 | 1.07 | 1.07 | 81 | 1008.8 |
| 20260506180208 | 16 | 197 | 11.3 | 22.5 | 0.03 | 1.07 | 1.07 | 81 | 1008.8 |
| 20260506180120 | 16 | 192 | 11.3 | 22.5 | 0.03 | 1.07 | 1.07 | 81 | 1008.8 |
| 20260506180008 | 16 | 194 | 11.3 | 22.5 | 0.03 | 1.07 | 1.07 | 81 | 1008.9 |
| 20260506175929 | 16 | 185 | 14.5 | 22.5 | 0.03 | 1.09 | 1.07 | 80 | 1008.8 |
| 20260506175801 | 16 | 200 | 11.3 | 22.5 | 0.03 | 1.09 | 1.07 | 80 | 1008.8 |
| 20260506175705 | 16 | 188 | 12.9 | 22.5 | 0.03 | 1.09 | 1.07 | 80 | 1008.8 |
| 20260506175603 | 16 | 163 | 11.3 | 22.5 | 0.03 | 1.09 | 1.07 | 80 | 1008.8 |
| 20260506175200 | 16 | 186 | 16.1 | 25.7 | 0.03 | 1.09 | 1.07 | 79 | 1008.8 |
| 20260506175007 | 16 | 171 | 11.3 | 25.7 | 0.03 | 1.09 | 1.07 | 79 | 1008.8 |
| 20260506174901 | 16 | 186 | 19.3 | 25.7 | 0.03 | 1.09 | 1.07 | 79 | 1008.8 |
| 20260506174807 | 16 | 189 | 9.7 | 25.7 | 0.03 | 1.09 | 1.07 | 79 | 1008.8 |
| 20260506174719 | 16 | 180 | 9.7 | 25.7 | 0.03 | 1.09 | 1.07 | 79 | 1008.8 |
| 20260506174611 | 16 | 173 | 14.5 | 25.7 | 0.03 | 1.09 | 1.07 | 79 | 1008.8 |
| 20260506174503 | 16 | 188 | 17.7 | 25.7 | 0.03 | 1.09 | 1.07 | 79 | 1008.7 |
| 20260506174414 | 16 | 180 | 16.1 | 25.7 | 0.03 | 1.09 | 1.07 | 79 | 1008.7 |
| 20260506174203 | 16 | 178 | 12.9 | 27.4 | 0.03 | 1.09 | 1.07 | 79 | 1008.7 |
| 20260506174103 | 16 | 194 | 22.5 | 27.4 | 0.03 | 1.09 | 1.07 | 79 | 1008.7 |
| 20260506174002 | 16 | 191 | 9.7 | 29.0 | 0.03 | 1.09 | 1.07 | 79 | 1008.7 |
| 20260506173902 | 16 | 188 | 19.3 | 29.0 | 0.03 | 1.09 | 1.07 | 79 | 1008.7 |
| 20260506173803 | 16 | 200 | 17.7 | 29.0 | 0.03 | 1.09 | 1.07 | 79 | 1008.8 |
| 20260506173700 | 16 | 186 | 16.1 | 27.4 | 0.03 | 1.09 | 1.07 | 79 | 1008.7 |
| 20260506173603 | 16 | 180 | 16.1 | 30.6 | 0.03 | 1.09 | 1.07 | 79 | 1008.7 |
| 20260506173504 | 16 | 178 | 17.7 | 30.6 | 0.03 | 1.09 | 1.07 | 79 | 1008.8 |
| 20260506173402 | 16 | 190 | 19.3 | 30.6 | 0.03 | 1.09 | 1.07 | 79 | 1008.7 |
| 20260506173205 | 16 | 207 | 14.5 | 30.6 | 0.05 | 1.09 | 1.07 | 79 | 1008.7 |
| 20260506173101 | 16 | 190 | 25.7 | 30.6 | 0.05 | 1.09 | 1.07 | 79 | 1008.7 |
| 20260506173006 | 16 | 205 | 16.1 | 30.6 | 0.05 | 1.09 | 1.07 | 80 | 1008.7 |
| 20260506172800 | 16 | 189 | 25.7 | 30.6 | 0.05 | 1.09 | 1.07 | 79 | 1008.6 |
| 20260506172702 | 16 | 193 | 24.1 | 30.6 | 0.05 | 1.09 | 1.07 | 80 | 1008.6 |
| 20260506172604 | 16 | 199 | 24.1 | 32.2 | 0.05 | 1.09 | 1.07 | 80 | 1008.7 |
| 20260506172500 | 16 | 198 | 22.5 | 32.2 | 0.05 | 1.09 | 1.07 | 80 | 1008.6 |
| 20260506172402 | 16 | 206 | 20.9 | 32.2 | 0.03 | 1.07 | 1.04 | 80 | 1008.7 |
| 20260506172200 | 16 | 195 | 16.1 | 30.6 | 0.03 | 1.07 | 1.04 | 80 | 1008.7 |
| 20260506172005 | 16 | 191 | 20.9 | 25.7 | 0.03 | 1.07 | 1.04 | 81 | 1008.6 |
| 20260506171903 | 16 | 217 | 17.7 | 25.7 | 0.03 | 1.07 | 1.04 | 80 | 1008.6 |
| 20260506171802 | 16 | 202 | 11.3 | 25.7 | 0.03 | 1.07 | 1.04 | 80 | 1008.6 |
| 20260506171703 | 16 | 196 | 14.5 | 25.7 | 0.03 | 1.07 | 1.04 | 80 | 1008.6 |
| 20260506171600 | 16 | 222 | 20.9 | 25.7 | 0.03 | 1.07 | 1.04 | 80 | 1008.6 |
| 20260506171504 | 16 | 232 | 17.7 | 25.7 | 0.03 | 1.07 | 1.04 | 80 | 1008.6 |
| 20260506171403 | 16 | 204 | 19.3 | 25.7 | 0.03 | 1.07 | 1.04 | 81 | 1008.6 |
| 20260506171300 | 16 | 209 | 16.1 | 27.4 | 0.03 | 1.07 | 1.04 | 81 | 1008.6 |
| 20260506171202 | 16 | 221 | 19.3 | 27.4 | 0.03 | 1.07 | 1.04 | 81 | 1008.7 |
| 20260506171105 | 16 | 186 | 12.9 | 27.4 | 0.03 | 1.07 | 1.04 | 81 | 1008.7 |
| 20260506171001 | 16 | 232 | 17.7 | 27.4 | 0.03 | 1.07 | 1.04 | 81 | 1008.7 |
| 20260506170900 | 16 | 225 | 19.3 | 27.4 | 0.03 | 1.07 | 1.04 | 81 | 1008.7 |
| 20260506170816 | 16 | 209 | 12.9 | 27.4 | 0.03 | 1.07 | 1.04 | 81 | 1008.7 |
| 20260506170700 | 16 | 189 | 17.7 | 27.4 | 0.03 | 1.07 | 1.04 | 82 | 1008.7 |
| 20260506170600 | 16 | 212 | 16.1 | 27.4 | 0.03 | 1.07 | 1.04 | 82 | 1008.7 |
| 20260506170503 | 16 | 218 | 22.5 | 27.4 | 0.03 | 1.07 | 1.04 | 83 | 1008.7 |
| 20260506170400 | 16 | 229 | 24.1 | 27.4 | 0.03 | 1.07 | 1.04 | 83 | 1008.6 |
| 20260506170300 | 16 | 216 | 12.9 | 30.6 | 0.03 | 1.07 | 1.04 | 83 | 1008.6 |
| 20260506170203 | 16 | 214 | 20.9 | 30.6 | 0.03 | 1.07 | 1.04 | 83 | 1008.6 |
| 20260506170005 | 16 | 232 | 20.9 | 30.6 | 0.03 | 1.07 | 1.04 | 84 | 1008.5 |
| 20260506165800 | 16 | 226 | 12.9 | 24.1 | 0.03 | 1.07 | 1.04 | 84 | 1008.6 |
| 20260506165700 | 16 | 219 | 14.5 | 22.5 | 0.03 | 1.07 | 1.04 | 84 | 1008.6 |
| 20260506165605 | 16 | 241 | 9.7 | 22.5 | 0.03 | 1.07 | 1.04 | 84 | 1008.6 |
| 20260506165500 | 16 | 230 | 16.1 | 20.9 | 0.03 | 1.07 | 1.04 | 85 | 1008.6 |
| 20260506165400 | 16 | 225 | 11.3 | 20.9 | 0.03 | 1.07 | 1.04 | 85 | 1008.5 |
| 20260506165305 | 16 | 219 | 17.7 | 20.9 | 0.03 | 1.07 | 1.04 | 85 | 1008.5 |
| 20260506165201 | 16 | 223 | 17.7 | 20.9 | 0.03 | 1.07 | 1.04 | 84 | 1008.4 |
| 20260506165101 | 16 | 231 | 17.7 | 20.9 | 0.03 | 1.07 | 1.04 | 84 | 1008.4 |
| 20260506164900 | 16 | 223 | 19.3 | 20.9 | 0.03 | 1.07 | 1.04 | 85 | 1008.4 |
| 20260506164800 | 16 | 239 | 16.1 | 17.7 | 0.03 | 1.07 | 1.04 | 85 | 1008.4 |
| 20260506164712 | 16 | 241 | 11.3 | 20.9 | 0.03 | 1.07 | 1.04 | 85 | 1008.4 |
| 20260506164600 | 16 | 244 | 8.0 | 20.9 | 0.03 | 1.07 | 1.04 | 84 | 1008.4 |
| 20260506164404 | 16 | 226 | 9.7 | 25.7 | 0.03 | 1.07 | 1.04 | 84 | 1008.4 |
| 20260506164302 | 16 | 225 | 12.9 | 25.7 | 0.03 | 1.07 | 1.04 | 84 | 1008.3 |
| 20260506164200 | 16 | 221 | 11.3 | 30.6 | 0.03 | 1.07 | 1.04 | 83 | 1008.3 |
| 20260506164103 | 16 | 222 | 12.9 | 30.6 | 0.03 | 1.07 | 1.04 | 83 | 1008.3 |
| 20260506164003 | 16 | 231 | 14.5 | 30.6 | 0.03 | 1.07 | 1.04 | 83 | 1008.3 |
| 20260506163900 | 16 | 213 | 11.3 | 30.6 | 0.03 | 1.07 | 1.04 | 83 | 1008.3 |
| 20260506163803 | 16 | 234 | 16.1 | 30.6 | 0.03 | 1.07 | 1.04 | 83 | 1008.3 |
| 20260506163700 | 16 | 227 | 12.9 | 30.6 | 0.03 | 1.07 | 1.04 | 82 | 1008.3 |
| 20260506163300 | 17 | 228 | 22.5 | 30.6 | 0.00 | 1.04 | 1.02 | 81 | 1008.3 |
| 20260506163203 | 17 | 222 | 22.5 | 30.6 | 0.00 | 1.04 | 1.02 | 81 | 1008.3 |
| 20260506163103 | 17 | 226 | 19.3 | 30.6 | 0.00 | 1.04 | 1.02 | 81 | 1008.3 |
| 20260506163001 | 17 | 225 | 20.9 | 30.6 | 0.00 | 1.04 | 1.02 | 80 | 1008.3 |
| 20260506162904 | 17 | 227 | 22.5 | 30.6 | 0.00 | 1.04 | 1.02 | 80 | 1008.3 |
| 20260506162700 | 17 | 224 | 22.5 | 30.6 | 0.00 | 1.04 | 1.02 | 80 | 1008.2 |
| 20260506162605 | 17 | 236 | 19.3 | 30.6 | 0.00 | 1.04 | 1.02 | 80 | 1008.2 |
| 20260506162502 | 17 | 228 | 25.7 | 30.6 | 0.00 | 1.04 | 1.02 | 80 | 1008.3 |
| 20260506162401 | 17 | 218 | 22.5 | 25.7 | 0.00 | 1.04 | 1.02 | 80 | 1008.3 |
| 20260506162306 | 17 | 232 | 17.7 | 25.7 | 0.00 | 1.04 | 1.02 | 79 | 1008.3 |
| 20260506162200 | 17 | 233 | 14.5 | 25.7 | 0.00 | 1.04 | 1.02 | 79 | 1008.2 |
| 20260506162100 | 17 | 225 | 24.1 | 25.7 | 0.00 | 1.04 | 1.02 | 79 | 1008.2 |
| 20260506162003 | 17 | 224 | 16.1 | 25.7 | 0.00 | 1.04 | 1.02 | 79 | 1008.2 |
| 20260506161901 | 17 | 224 | 11.3 | 25.7 | 0.00 | 1.04 | 1.02 | 79 | 1008.2 |
| 20260506161802 | 17 | 238 | 24.1 | 27.4 | 0.00 | 1.04 | 1.02 | 79 | 1008.2 |
| 20260506161703 | 17 | 216 | 14.5 | 27.4 | 0.00 | 1.04 | 1.02 | 79 | 1008.2 |
| 20260506161500 | 17 | 198 | 14.5 | 27.4 | 0.00 | 1.04 | 1.02 | 78 | 1008.2 |
| 20260506161403 | 17 | 225 | 9.7 | 27.4 | 0.00 | 1.04 | 1.02 | 79 | 1008.2 |
| 20260506161301 | 17 | 236 | 12.9 | 27.4 | 0.00 | 1.04 | 1.02 | 79 | 1008.2 |
| 20260506161200 | 17 | 232 | 11.3 | 27.4 | 0.00 | 1.04 | 1.02 | 78 | 1008.2 |
| 20260506161102 | 17 | 232 | 8.0 | 27.4 | 0.00 | 1.04 | 1.02 | 78 | 1008.2 |
| 20260506161002 | 17 | 223 | 12.9 | 27.4 | 0.00 | 1.04 | 1.02 | 78 | 1008.2 |
| 20260506160901 | 17 | 237 | 19.3 | 27.4 | 0.00 | 1.04 | 1.02 | 78 | 1008.2 |
| 20260506160806 | 17 | 229 | 25.7 | 27.4 | 0.00 | 1.04 | 1.02 | 78 | 1008.2 |
| 20260506160700 | 17 | 222 | 11.3 | 17.7 | 0.00 | 1.04 | 1.02 | 79 | 1008.3 |
| 20260506160600 | 17 | 226 | 11.3 | 22.5 | 0.00 | 1.04 | 1.02 | 79 | 1008.2 |
| 20260506160503 | 17 | 249 | 9.7 | 22.5 | 0.00 | 1.04 | 1.02 | 79 | 1008.2 |
| 20260506160407 | 17 | 185 | 6.4 | 22.5 | 0.00 | 1.04 | 1.02 | 79 | 1008.2 |
| 20260506160300 | 17 | 239 | 12.9 | 22.5 | 0.00 | 1.04 | 1.02 | 79 | 1008.2 |
| 20260506160200 | 17 | 214 | 12.9 | 22.5 | 0.00 | 1.04 | 1.02 | 79 | 1008.2 |
| 20260506160123 | 17 | 225 | 11.3 | 24.1 | 0.00 | 1.04 | 1.02 | 79 | 1008.2 |
| 20260506160006 | 17 | 194 | 11.3 | 24.1 | 0.00 | 1.04 | 1.02 | 79 | 1008.2 |
| 20260506155901 | 17 | 236 | 14.5 | 24.1 | 0.00 | 1.04 | 1.02 | 78 | 1008.1 |
| 20260506155806 | 17 | 224 | 12.9 | 24.1 | 0.00 | 1.04 | 1.02 | 78 | 1008.1 |
| 20260506155600 | 17 | 196 | 11.3 | 24.1 | 0.00 | 1.04 | 1.02 | 78 | 1008.2 |
| 20260506155504 | 17 | 207 | 9.7 | 24.1 | 0.00 | 1.04 | 1.02 | 78 | 1008.2 |
| 20260506155400 | 17 | 210 | 11.3 | 24.1 | 0.00 | 1.04 | 1.02 | 78 | 1008.1 |
| 20260506155300 | 17 | 200 | 11.3 | 24.1 | 0.00 | 1.04 | 1.02 | 78 | 1008.2 |
| 20260506155203 | 17 | 188 | 11.3 | 27.4 | 0.00 | 1.04 | 1.02 | 78 | 1008.2 |
| 20260506155100 | 17 | 192 | 19.3 | 27.4 | 0.00 | 1.04 | 1.02 | 78 | 1008.2 |
| 20260506155007 | 17 | 196 | 17.7 | 27.4 | 0.00 | 1.04 | 1.02 | 78 | 1008.2 |
| 20260506154905 | 17 | 199 | 16.1 | 27.4 | 0.00 | 1.04 | 1.02 | 79 | 1008.1 |
| 20260506154800 | 17 | 232 | 16.1 | 27.4 | 0.00 | 1.04 | 1.02 | 78 | 1008.1 |
| 20260506154608 | 17 | 205 | 19.3 | 27.4 | 0.00 | 1.04 | 1.02 | 79 | 1008.2 |
| 20260506154400 | 17 | 196 | 24.1 | 30.6 | 0.03 | 1.04 | 1.02 | 78 | 1008.2 |
| 20260506154200 | 17 | 201 | 19.3 | 30.6 | 0.03 | 1.04 | 1.02 | 78 | 1008.2 |
| 20260506154100 | 17 | 224 | 17.7 | 30.6 | 0.03 | 1.04 | 1.02 | 78 | 1008.2 |
| 20260506154007 | 17 | 218 | 19.3 | 30.6 | 0.03 | 1.04 | 1.02 | 78 | 1008.2 |
| 20260506153900 | 17 | 198 | 24.1 | 30.6 | 0.03 | 1.04 | 1.02 | 78 | 1008.3 |
| 20260506153800 | 17 | 225 | 24.1 | 30.6 | 0.05 | 1.04 | 1.02 | 78 | 1008.2 |
| 20260506153703 | 17 | 194 | 17.7 | 35.4 | 0.05 | 1.04 | 1.02 | 78 | 1008.2 |
| 20260506153601 | 17 | 216 | 22.5 | 35.4 | 0.05 | 1.04 | 1.02 | 78 | 1008.2 |
| 20260506153501 | 17 | 215 | 22.5 | 35.4 | 0.05 | 1.04 | 1.02 | 78 | 1008.2 |
| 20260506153402 | 17 | 201 | 24.1 | 35.4 | 0.08 | 1.04 | 1.02 | 78 | 1008.2 |
| 20260506153300 | 17 | 217 | 19.3 | 35.4 | 0.08 | 1.04 | 1.02 | 78 | 1008.2 |
| 20260506153200 | 17 | 202 | 17.7 | 35.4 | 0.08 | 1.04 | 1.02 | 78 | 1008.2 |
| 20260506153103 | 17 | 221 | 27.4 | 35.4 | 0.08 | 1.04 | 1.02 | 79 | 1008.2 |
| 20260506153002 | 17 | 187 | 20.9 | 35.4 | 0.08 | 1.04 | 1.02 | 79 | 1008.1 |
| 20260506152900 | 16 | 211 | 20.9 | 33.8 | 0.08 | 1.04 | 1.02 | 79 | 1008.2 |
| 20260506152802 | 16 | 237 | 22.5 | 33.8 | 0.08 | 1.04 | 1.02 | 79 | 1008.1 |
| 20260506152700 | 16 | 225 | 33.8 | 35.4 | 0.08 | 1.04 | 1.02 | 79 | 1008.2 |
| 20260506152603 | 16 | 221 | 29.0 | 33.8 | 0.08 | 1.04 | 1.02 | 80 | 1008.2 |
| 20260506152202 | 16 | 217 | 29.0 | 33.8 | 0.08 | 1.04 | 1.02 | 80 | 1008.2 |
| 20260506152001 | 16 | 217 | 19.3 | 33.8 | 0.08 | 1.04 | 1.02 | 81 | 1008.3 |
| 20260506151903 | 16 | 183 | 24.1 | 35.4 | 0.08 | 1.04 | 1.02 | 81 | 1008.2 |
| 20260506151800 | 16 | 207 | 27.4 | 35.4 | 0.08 | 1.04 | 1.02 | 82 | 1008.2 |
| 20260506151700 | 16 | 215 | 27.4 | 35.4 | 0.08 | 1.04 | 1.02 | 82 | 1008.2 |
| 20260506151609 | 16 | 225 | 19.3 | 35.4 | 0.08 | 1.04 | 1.02 | 82 | 1008.2 |
| 20260506151501 | 16 | 225 | 25.7 | 35.4 | 0.08 | 1.04 | 1.02 | 82 | 1008.2 |
| 20260506151400 | 16 | 229 | 24.1 | 35.4 | 0.08 | 1.04 | 1.02 | 82 | 1008.2 |
| 20260506151303 | 16 | 230 | 22.5 | 35.4 | 0.08 | 1.04 | 1.02 | 82 | 1008.2 |
| 20260506151200 | 16 | 229 | 25.7 | 35.4 | 0.08 | 1.04 | 1.02 | 82 | 1008.3 |
| 20260506151100 | 16 | 210 | 24.1 | 29.0 | 0.08 | 1.04 | 1.02 | 83 | 1008.3 |
| 20260506151005 | 16 | 194 | 16.1 | 29.0 | 0.08 | 1.04 | 1.02 | 83 | 1008.3 |
| 20260506150900 | 16 | 217 | 20.9 | 29.0 | 0.08 | 1.04 | 1.02 | 84 | 1008.4 |
| 20260506150804 | 16 | 225 | 20.9 | 27.4 | 0.08 | 1.04 | 1.02 | 84 | 1008.3 |
| 20260506150705 | 16 | 194 | 11.3 | 27.4 | 0.08 | 1.04 | 1.02 | 84 | 1008.3 |
| 20260506150621 | 16 | 229 | 16.1 | 27.4 | 0.08 | 1.04 | 1.02 | 84 | 1008.3 |
| 20260506150402 | 15 | 231 | 22.5 | 27.4 | 0.08 | 1.04 | 1.02 | 84 | 1008.3 |
| 20260506150304 | 15 | 226 | 17.7 | 27.4 | 0.08 | 1.04 | 1.02 | 86 | 1008.3 |
| 20260506150201 | 15 | 216 | 27.4 | 27.4 | 0.08 | 1.04 | 1.02 | 86 | 1008.3 |
| 20260506150009 | 15 | 231 | 12.9 | 17.7 | 0.08 | 1.04 | 1.02 | 86 | 1008.2 |
| 20260506145900 | 15 | 238 | 12.9 | 17.7 | 0.08 | 1.04 | 1.02 | 86 | 1008.2 |
| 20260506145804 | 15 | 227 | 9.7 | 17.7 | 0.08 | 1.04 | 1.02 | 86 | 1008.2 |
| 20260506145701 | 15 | 244 | 6.4 | 20.9 | 0.08 | 1.04 | 1.02 | 86 | 1008.2 |
| 20260506145605 | 15 | 239 | 6.4 | 32.2 | 0.08 | 1.04 | 1.02 | 86 | 1008.3 |
| 20260506145506 | 15 | 243 | 11.3 | 32.2 | 0.08 | 1.04 | 1.02 | 86 | 1008.3 |
| 20260506145300 | 15 | 261 | 11.3 | 32.2 | 0.08 | 1.04 | 1.02 | 86 | 1008.5 |
| 20260506145203 | 15 | 231 | 12.9 | 32.2 | 0.08 | 1.04 | 1.02 | 86 | 1008.5 |
| 20260506145100 | 15 | 237 | 12.9 | 32.2 | 0.08 | 1.04 | 1.02 | 86 | 1008.5 |
| 20260506145001 | 15 | 232 | 12.9 | 35.4 | 0.08 | 1.04 | 1.02 | 85 | 1008.5 |
| 20260506144905 | 15 | 242 | 14.5 | 38.6 | 0.08 | 1.04 | 1.02 | 85 | 1008.5 |
| 20260506144801 | 15 | 233 | 11.3 | 38.6 | 0.08 | 1.04 | 1.02 | 85 | 1008.5 |
| 20260506144700 | 15 | 227 | 20.9 | 49.9 | 0.08 | 1.04 | 1.02 | 85 | 1008.5 |
| 20260506144614 | 15 | 213 | 19.3 | 49.9 | 0.08 | 1.04 | 1.02 | 85 | 1008.5 |
| 20260506144501 | 16 | 233 | 24.1 | 49.9 | 0.05 | 1.02 | 0.99 | 84 | 1008.6 |
| 20260506144400 | 16 | 239 | 22.5 | 49.9 | 0.05 | 1.02 | 0.99 | 84 | 1008.6 |
| 20260506144302 | 16 | 251 | 24.1 | 49.9 | 0.05 | 1.02 | 0.99 | 84 | 1008.6 |
| 20260506144200 | 16 | 239 | 19.3 | 49.9 | 0.05 | 1.02 | 0.99 | 83 | 1008.7 |
| 20260506144100 | 16 | 222 | 22.5 | 49.9 | 0.05 | 1.02 | 0.99 | 82 | 1008.7 |
| 20260506144005 | 16 | 247 | 20.9 | 49.9 | 0.05 | 1.02 | 0.99 | 82 | 1008.7 |
| 20260506143800 | 16 | 223 | 37.0 | 49.9 | 0.05 | 0.99 | 0.99 | 80 | 1008.5 |
| 20260506143703 | 17 | 211 | 37.0 | 48.3 | 0.05 | 0.99 | 0.99 | 79 | 1008.5 |
| 20260506143600 | 17 | 227 | 37.0 | 48.3 | 0.03 | 0.99 | 0.97 | 79 | 1008.5 |
| 20260506143404 | 17 | 271 | 17.7 | 48.3 | 0.00 | 0.97 | 0.94 | 78 | 1008.5 |
| 20260506143300 | 17 | 261 | 33.8 | 48.3 | 0.00 | 0.97 | 0.94 | 76 | 1008.5 |
| 20260506143201 | 18 | 218 | 40.2 | 48.3 | 0.00 | 0.97 | 0.94 | 77 | 1008.5 |
| 20260506143103 | 18 | 216 | 30.6 | 32.2 | 0.00 | 0.97 | 0.94 | 77 | 1008.4 |
| 20260506143002 | 18 | 252 | 19.3 | 32.2 | 0.00 | 0.97 | 0.94 | 77 | 1008.4 |
| 20260506142803 | 18 | 245 | 22.5 | 38.6 | 0.00 | 0.97 | 0.94 | 76 | 1008.4 |
| 20260506142700 | 18 | 265 | 27.4 | 38.6 | 0.00 | 0.97 | 0.94 | 76 | 1008.4 |
| 20260506142601 | 18 | 259 | 12.9 | 38.6 | 0.00 | 0.97 | 0.94 | 76 | 1008.4 |
| 20260506142503 | 18 | 256 | 20.9 | 38.6 | 0.00 | 0.97 | 0.94 | 75 | 1008.2 |
| 20260506142401 | 18 | 265 | 24.1 | 38.6 | 0.00 | 0.97 | 0.94 | 74 | 1008.2 |
| 20260506142300 | 19 | 273 | 14.5 | 38.6 | 0.00 | 0.97 | 0.94 | 74 | 1008.1 |
| 20260506142204 | 19 | 279 | 19.3 | 38.6 | 0.00 | 0.97 | 0.94 | 72 | 1008.1 |
| 20260506142101 | 20 | 252 | 20.9 | 38.6 | 0.00 | 0.97 | 0.94 | 72 | 1008.0 |
| 20260506142001 | 20 | 261 | 22.5 | 38.6 | 0.00 | 0.97 | 0.94 | 70 | 1007.8 |
| 20260506141904 | 20 | 281 | 32.2 | 38.6 | 0.00 | 0.97 | 0.94 | 69 | 1007.9 |
| 20260506141800 | 21 | 282 | 32.2 | 38.6 | 0.00 | 0.97 | 0.94 | 67 | 1007.8 |
| 20260506141700 | 21 | 287 | 30.6 | 30.6 | 0.00 | 0.97 | 0.94 | 67 | 1007.8 |
| 20260506141603 | 21 | 272 | 9.7 | 16.1 | 0.00 | 0.97 | 0.94 | 65 | 1007.8 |
| 20260506141503 | 21 | 246 | 9.7 | 16.1 | 0.00 | 0.97 | 0.94 | 66 | 1007.7 |
| 20260506141303 | 21 | 291 | 9.7 | 16.1 | 0.00 | 0.97 | 0.94 | 67 | 1007.7 |
| 20260506141159 | 21 | 284 | 8.0 | 16.1 | 0.00 | 0.97 | 0.94 | 68 | 1007.7 |
| 20260506141101 | 21 | 281 | 12.9 | 16.1 | 0.00 | 0.97 | 0.94 | 67 | 1007.7 |
| 20260506141010 | 21 | 277 | 9.7 | 16.1 | 0.00 | 0.97 | 0.94 | 66 | 1007.7 |
| 20260506140700 | 21 | 269 | 9.7 | 12.9 | 0.00 | 0.97 | 0.94 | 65 | 1007.8 |
| 20260506140502 | 21 | 271 | 4.8 | 11.3 | 0.00 | 0.97 | 0.94 | 65 | 1007.8 |
| 20260506140305 | 22 | 286 | 11.3 | 11.3 | 0.00 | 0.97 | 0.94 | 64 | 1007.8 |
| 20260506140159 | 22 | 284 | 4.8 | 11.3 | 0.00 | 0.97 | 0.94 | 63 | 1007.8 |
| 20260506140132 | 22 | 292 | 9.7 | 11.3 | 0.00 | 0.97 | 0.94 | 63 | 1007.8 |
| 20260506135803 | 22 | 194 | 4.8 | 12.9 | 0.00 | 0.97 | 0.94 | 63 | 1007.8 |
| 20260506135602 | 22 | 185 | 11.3 | 12.9 | 0.00 | 0.97 | 0.94 | 63 | 1007.8 |
| 20260506135504 | 22 | 178 | 6.4 | 12.9 | 0.00 | 0.97 | 0.94 | 62 | 1007.8 |
| 20260506135404 | 22 | 163 | 4.8 | 12.9 | 0.00 | 0.97 | 0.94 | 61 | 1007.8 |
| 20260506135306 | 22 | 161 | 1.6 | 12.9 | 0.00 | 0.97 | 0.94 | 61 | 1007.8 |
| 20260506135105 | 22 | 146 | 4.8 | 12.9 | 0.00 | 0.97 | 0.94 | 63 | 1007.8 |
| 20260506135002 | 22 | 184 | 6.4 | 12.9 | 0.00 | 0.97 | 0.94 | 62 | 1007.8 |
| 20260506134859 | 22 | 160 | 6.4 | 16.1 | 0.00 | 0.97 | 0.94 | 60 | 1007.8 |
| 20260506134600 | 22 | 150 | 6.4 | 16.1 | 0.00 | 0.97 | 0.94 | 61 | 1007.9 |
| 20260506134526 | 22 | 138 | 12.9 | 16.1 | 0.00 | 0.97 | 0.94 | 61 | 1007.9 |
| 20260506134259 | 22 | 163 | 11.3 | 16.1 | 0.00 | 0.97 | 0.94 | 60 | 1007.9 |
| 20260506134004 | 22 | 188 | 12.9 | 17.7 | 0.00 | 0.97 | 0.94 | 60 | 1007.9 |
| 20260506133906 | 22 | 170 | 9.7 | 17.7 | 0.00 | 0.97 | 0.94 | 60 | 1007.9 |
| 20260506133801 | 22 | 187 | 12.9 | 17.7 | 0.00 | 0.97 | 0.94 | 61 | 1007.9 |
| 20260506133609 | 22 | 176 | 3.2 | 17.7 | 0.00 | 0.97 | 0.94 | 60 | 1007.9 |
| 20260506133516 | 22 | 176 | 8.0 | 17.7 | 0.00 | 0.97 | 0.94 | 58 | 1007.8 |
| 20260506133359 | 22 | 187 | 8.0 | 19.3 | 0.00 | 0.97 | 0.94 | 60 | 1007.9 |
| 20260506133303 | 22 | 179 | 11.3 | 19.3 | 0.00 | 0.97 | 0.94 | 62 | 1007.9 |
| 20260506133200 | 22 | 139 | 4.8 | 19.3 | 0.00 | 0.97 | 0.94 | 61 | 1007.9 |
| 20260506133100 | 22 | 169 | 14.5 | 19.3 | 0.00 | 0.97 | 0.94 | 60 | 1007.9 |
| 20260506133004 | 22 | 201 | 6.4 | 19.3 | 0.00 | 0.97 | 0.94 | 62 | 1007.9 |
| 20260506132859 | 22 | 194 | 8.0 | 19.3 | 0.00 | 0.97 | 0.94 | 63 | 1007.9 |
| 20260506132600 | 22 | 165 | 9.7 | 19.3 | 0.00 | 0.97 | 0.94 | 62 | 1008.0 |
| 20260506132500 | 22 | 135 | 8.0 | 19.3 | 0.00 | 0.97 | 0.94 | 63 | 1008.0 |
| 20260506132408 | 22 | 159 | 6.4 | 17.7 | 0.00 | 0.97 | 0.94 | 63 | 1008.0 |
| 20260506132300 | 22 | 185 | 6.4 | 17.7 | 0.00 | 0.97 | 0.94 | 62 | 1008.0 |
| 20260506132201 | 22 | 142 | 11.3 | 17.7 | 0.00 | 0.97 | 0.94 | 63 | 1008.0 |
| 20260506132103 | 22 | 162 | 8.0 | 17.7 | 0.00 | 0.97 | 0.94 | 62 | 1008.0 |
| 20260506132001 | 22 | 200 | 4.8 | 17.7 | 0.00 | 0.97 | 0.94 | 61 | 1008.0 |
| 20260506131901 | 22 | 161 | 12.9 | 17.7 | 0.00 | 0.97 | 0.94 | 63 | 1008.1 |
| 20260506131700 | 22 | 170 | 3.2 | 24.1 | 0.00 | 0.97 | 0.94 | 63 | 1008.0 |
| 20260506131600 | 22 | 226 | 4.8 | 24.1 | 0.00 | 0.97 | 0.94 | 64 | 1008.1 |
| 20260506131504 | 22 | 164 | 4.8 | 24.1 | 0.00 | 0.97 | 0.94 | 63 | 1008.1 |
| 20260506131400 | 22 | 176 | 8.0 | 24.1 | 0.00 | 0.97 | 0.94 | 62 | 1008.1 |
| 20260506131202 | 22 | 110 | 11.3 | 24.1 | 0.00 | 0.97 | 0.94 | 66 | 1008.1 |
| 20260506131059 | 22 | 162 | 9.7 | 24.1 | 0.00 | 0.97 | 0.94 | 64 | 1008.1 |
| 20260506131002 | 22 | 161 | 3.2 | 24.1 | 0.00 | 0.97 | 0.94 | 63 | 1008.2 |
| 20260506130905 | 22 | 163 | 4.8 | 24.1 | 0.00 | 0.97 | 0.94 | 61 | 1008.2 |
| 20260506130801 | 22 | 175 | 14.5 | 24.1 | 0.00 | 0.97 | 0.94 | 61 | 1008.2 |
| 20260506130700 | 22 | 184 | 24.1 | 24.1 | 0.00 | 0.97 | 0.94 | 61 | 1008.2 |
| 20260506130604 | 22 | 165 | 11.3 | 22.5 | 0.00 | 0.97 | 0.94 | 63 | 1008.2 |
| 20260506130501 | 22 | 157 | 12.9 | 22.5 | 0.00 | 0.97 | 0.94 | 63 | 1008.2 |
| 20260506130359 | 22 | 119 | 12.9 | 22.5 | 0.00 | 0.97 | 0.94 | 61 | 1008.2 |
| 20260506130303 | 22 | 123 | 8.0 | 22.5 | 0.00 | 0.97 | 0.94 | 63 | 1008.2 |
| 20260506130200 | 22 | 165 | 4.8 | 22.5 | 0.00 | 0.97 | 0.94 | 65 | 1008.1 |
| 20260506130006 | 22 | 128 | 16.1 | 22.5 | 0.00 | 0.97 | 0.94 | 66 | 1008.2 |
| 20260506125900 | 22 | 134 | 16.1 | 22.5 | 0.00 | 0.97 | 0.94 | 67 | 1008.2 |
| 20260506125759 | 22 | 161 | 16.1 | 22.5 | 0.00 | 0.97 | 0.94 | 66 | 1008.2 |
| 20260506125702 | 22 | 134 | 16.1 | 22.5 | 0.00 | 0.97 | 0.94 | 65 | 1008.2 |
| 20260506125600 | 22 | 153 | 8.0 | 19.3 | 0.00 | 0.97 | 0.94 | 66 | 1008.2 |
| 20260506125504 | 22 | 189 | 6.4 | 19.3 | 0.00 | 0.97 | 0.94 | 65 | 1008.2 |
| 20260506125402 | 22 | 175 | 6.4 | 24.1 | 0.00 | 0.97 | 0.94 | 64 | 1008.3 |
| 20260506125300 | 22 | 196 | 9.7 | 24.1 | 0.00 | 0.97 | 0.94 | 63 | 1008.3 |
| 20260506125159 | 22 | 170 | 12.9 | 24.1 | 0.00 | 0.97 | 0.94 | 63 | 1008.3 |
| 20260506125001 | 22 | 173 | 12.9 | 24.1 | 0.00 | 0.97 | 0.94 | 65 | 1008.3 |
| 20260506124859 | 22 | 161 | 4.8 | 24.1 | 0.00 | 0.97 | 0.94 | 69 | 1008.2 |
| 20260506124802 | 22 | 121 | 16.1 | 24.1 | 0.00 | 0.97 | 0.94 | 68 | 1008.2 |
| 20260506124700 | 21 | 152 | 9.7 | 24.1 | 0.00 | 0.97 | 0.94 | 66 | 1008.2 |
| 20260506124301 | 21 | 153 | 6.4 | 22.5 | 0.00 | 0.97 | 0.94 | 69 | 1008.3 |
| 20260506124203 | 21 | 154 | 12.9 | 22.5 | 0.00 | 0.97 | 0.94 | 67 | 1008.2 |
| 20260506124100 | 21 | 157 | 4.8 | 22.5 | 0.00 | 0.97 | 0.94 | 67 | 1008.3 |
| 20260506124001 | 21 | 157 | 9.7 | 22.5 | 0.00 | 0.97 | 0.94 | 68 | 1008.3 |
| 20260506123902 | 21 | 142 | 6.4 | 24.1 | 0.00 | 0.97 | 0.94 | 68 | 1008.3 |
| 20260506123800 | 21 | 133 | 16.1 | 24.1 | 0.00 | 0.97 | 0.94 | 69 | 1008.4 |
| 20260506123700 | 21 | 136 | 19.3 | 24.1 | 0.00 | 0.97 | 0.94 | 68 | 1008.3 |
| 20260506123605 | 21 | 159 | 11.3 | 24.1 | 0.00 | 0.97 | 0.94 | 67 | 1008.3 |
| 20260506123500 | 21 | 138 | 14.5 | 24.1 | 0.00 | 0.97 | 0.94 | 66 | 1008.3 |
| 20260506123302 | 21 | 155 | 9.7 | 24.1 | 0.00 | 0.97 | 0.94 | 67 | 1008.3 |
| 20260506123200 | 21 | 159 | 12.9 | 24.1 | 0.00 | 0.97 | 0.94 | 67 | 1008.3 |
| 20260506123059 | 21 | 147 | 12.9 | 24.1 | 0.00 | 0.97 | 0.94 | 68 | 1008.3 |
| 20260506123005 | 21 | 136 | 22.5 | 24.1 | 0.00 | 0.97 | 0.94 | 69 | 1008.3 |
| 20260506122900 | 21 | 129 | 17.7 | 22.5 | 0.00 | 0.97 | 0.94 | 69 | 1008.3 |
| 20260506122800 | 21 | 142 | 9.7 | 24.1 | 0.00 | 0.97 | 0.94 | 68 | 1008.3 |
| 20260506122703 | 21 | 163 | 6.4 | 24.1 | 0.00 | 0.97 | 0.94 | 68 | 1008.3 |
| 20260506122402 | 21 | 154 | 8.0 | 24.1 | 0.00 | 0.97 | 0.94 | 67 | 1008.3 |
| 20260506122306 | 21 | 138 | 14.5 | 24.1 | 0.00 | 0.97 | 0.94 | 67 | 1008.3 |
| 20260506122103 | 21 | 130 | 16.1 | 24.1 | 0.00 | 0.97 | 0.94 | 66 | 1008.3 |
| 20260506122002 | 21 | 136 | 17.7 | 24.1 | 0.00 | 0.97 | 0.94 | 66 | 1008.4 |
| 20260506121700 | 21 | 144 | 16.1 | 24.1 | 0.00 | 0.97 | 0.94 | 67 | 1008.3 |
| 20260506121611 | 21 | 163 | 11.3 | 24.1 | 0.00 | 0.97 | 0.94 | 66 | 1008.3 |
| 20260506121509 | 21 | 133 | 16.1 | 24.1 | 0.00 | 0.97 | 0.94 | 66 | 1008.3 |
| 20260506121203 | 21 | 144 | 8.0 | 19.3 | 0.00 | 0.97 | 0.94 | 67 | 1008.3 |
| 20260506121102 | 21 | 164 | 11.3 | 19.3 | 0.00 | 0.97 | 0.94 | 67 | 1008.4 |
| 20260506120902 | 21 | 165 | 4.8 | 19.3 | 0.00 | 0.97 | 0.94 | 66 | 1008.3 |
| 20260506120804 | 21 | 195 | 16.1 | 19.3 | 0.00 | 0.97 | 0.94 | 68 | 1008.3 |
| 20260506120700 | 21 | 187 | 14.5 | 16.1 | 0.00 | 0.97 | 0.94 | 67 | 1008.3 |
| 20260506120505 | 21 | 147 | 8.0 | 16.1 | 0.00 | 0.97 | 0.94 | 68 | 1008.4 |
| 20260506120400 | 21 | 158 | 8.0 | 16.1 | 0.00 | 0.97 | 0.94 | 67 | 1008.4 |
| 20260506120300 | 21 | 178 | 9.7 | 16.1 | 0.00 | 0.97 | 0.94 | 67 | 1008.4 |
| 20260506120204 | 21 | 182 | 14.5 | 16.1 | 0.00 | 0.97 | 0.94 | 69 | 1008.4 |
| 20260506120130 | 21 | 158 | 6.4 | 19.3 | 0.00 | 0.97 | 0.94 | 69 | 1008.5 |
| 20260506115904 | 21 | 136 | 8.0 | 19.3 | 0.00 | 0.99 | 0.94 | 69 | 1008.5 |
| 20260506115800 | 21 | 167 | 8.0 | 19.3 | 0.00 | 0.99 | 0.94 | 69 | 1008.5 |
| 20260506115700 | 21 | 165 | 4.8 | 19.3 | 0.00 | 0.99 | 0.94 | 69 | 1008.4 |
| 20260506115359 | 20 | 198 | 6.4 | 19.3 | 0.00 | 0.99 | 0.94 | 67 | 1008.5 |
| 20260506115306 | 20 | 167 | 6.4 | 19.3 | 0.00 | 0.99 | 0.94 | 68 | 1008.6 |
| 20260506115200 | 20 | 176 | 12.9 | 19.3 | 0.00 | 0.99 | 0.94 | 69 | 1008.6 |
| 20260506115059 | 20 | 175 | 11.3 | 19.3 | 0.03 | 0.99 | 0.94 | 68 | 1008.6 |
| 20260506115005 | 20 | 171 | 12.9 | 19.3 | 0.03 | 0.99 | 0.94 | 68 | 1008.6 |
| 20260506114900 | 20 | 159 | 4.8 | 17.7 | 0.03 | 0.99 | 0.94 | 68 | 1008.7 |
| 20260506114759 | 20 | 164 | 11.3 | 17.7 | 0.03 | 0.99 | 0.94 | 67 | 1008.7 |
| 20260506114702 | 20 | 164 | 8.0 | 17.7 | 0.03 | 0.99 | 0.94 | 68 | 1008.6 |
| 20260506114600 | 20 | 171 | 11.3 | 16.1 | 0.03 | 0.99 | 0.94 | 70 | 1008.6 |
| 20260506114501 | 20 | 165 | 9.7 | 16.1 | 0.03 | 0.99 | 0.94 | 70 | 1008.6 |
| 20260506114402 | 20 | 160 | 8.0 | 16.1 | 0.03 | 0.99 | 0.94 | 69 | 1008.6 |
| 20260506114259 | 20 | 164 | 11.3 | 16.1 | 0.03 | 0.99 | 0.94 | 70 | 1008.6 |
| 20260506114200 | 20 | 160 | 9.7 | 16.1 | 0.03 | 0.99 | 0.94 | 70 | 1008.6 |
| 20260506114000 | 20 | 163 | 4.8 | 22.5 | 0.03 | 0.99 | 0.94 | 71 | 1008.6 |
| 20260506113859 | 20 | 152 | 11.3 | 22.5 | 0.03 | 0.99 | 0.94 | 70 | 1008.6 |
| 20260506113802 | 20 | 157 | 6.4 | 22.5 | 0.03 | 0.99 | 0.94 | 70 | 1008.6 |
| 20260506113701 | 20 | 157 | 3.2 | 22.5 | 0.03 | 0.99 | 0.94 | 70 | 1008.6 |
| 20260506113559 | 20 | 169 | 6.4 | 22.5 | 0.03 | 0.99 | 0.94 | 70 | 1008.6 |
| 20260506113502 | 20 | 165 | 6.4 | 22.5 | 0.03 | 0.99 | 0.94 | 70 | 1008.6 |
| 20260506113400 | 20 | 162 | 6.4 | 30.6 | 0.03 | 0.99 | 0.94 | 70 | 1008.6 |
| 20260506113259 | 20 | 159 | 8.0 | 30.6 | 0.03 | 0.99 | 0.94 | 70 | 1008.6 |
| 20260506113117 | 20 | 178 | 8.0 | 30.6 | 0.03 | 0.99 | 0.94 | 70 | 1008.6 |
| 20260506113009 | 20 | 191 | 16.1 | 32.2 | 0.03 | 0.99 | 0.94 | 70 | 1008.6 |
| 20260506112907 | 20 | 206 | 14.5 | 32.2 | 0.03 | 0.99 | 0.94 | 70 | 1008.6 |
| 20260506112817 | 20 | 165 | 11.3 | 32.2 | 0.03 | 0.99 | 0.94 | 70 | 1008.5 |
| 20260506112700 | 20 | 186 | 24.1 | 32.2 | 0.03 | 0.99 | 0.94 | 69 | 1008.6 |
| 20260506112601 | 20 | 179 | 14.5 | 32.2 | 0.03 | 0.99 | 0.94 | 68 | 1008.6 |
| 20260506112504 | 20 | 190 | 17.7 | 32.2 | 0.03 | 0.99 | 0.94 | 69 | 1008.5 |
| 20260506112400 | 20 | 217 | 22.5 | 32.2 | 0.03 | 0.99 | 0.94 | 70 | 1008.6 |
| 20260506112300 | 20 | 193 | 16.1 | 32.2 | 0.03 | 0.99 | 0.94 | 69 | 1008.5 |
| 20260506112220 | 20 | 182 | 11.3 | 32.2 | 0.03 | 0.99 | 0.94 | 70 | 1008.5 |
| 20260506112101 | 20 | 194 | 22.5 | 32.2 | 0.03 | 0.99 | 0.94 | 70 | 1008.6 |
| 20260506112002 | 20 | 174 | 20.9 | 32.2 | 0.03 | 0.99 | 0.94 | 70 | 1008.5 |
| 20260506111801 | 20 | 200 | 22.5 | 32.2 | 0.03 | 0.99 | 0.94 | 70 | 1008.6 |
| 20260506111603 | 20 | 188 | 6.4 | 32.2 | 0.03 | 0.99 | 0.94 | 70 | 1008.6 |
| 20260506111500 | 20 | 192 | 20.9 | 32.2 | 0.03 | 0.99 | 0.94 | 70 | 1008.6 |
| 20260506111400 | 20 | 172 | 14.5 | 32.2 | 0.03 | 0.99 | 0.94 | 70 | 1008.6 |
| 20260506111200 | 20 | 191 | 19.3 | 35.4 | 0.03 | 0.99 | 0.94 | 71 | 1008.6 |
| 20260506111100 | 20 | 182 | 14.5 | 35.4 | 0.03 | 0.99 | 0.94 | 71 | 1008.6 |
| 20260506111004 | 20 | 202 | 20.9 | 35.4 | 0.03 | 0.99 | 0.94 | 72 | 1008.6 |
| 20260506110900 | 20 | 191 | 16.1 | 35.4 | 0.03 | 0.99 | 0.94 | 70 | 1008.6 |
| 20260506110800 | 20 | 167 | 14.5 | 35.4 | 0.03 | 0.99 | 0.94 | 71 | 1008.6 |
| 20260506110600 | 20 | 197 | 29.0 | 35.4 | 0.03 | 0.99 | 0.94 | 71 | 1008.7 |
| 20260506110502 | 20 | 170 | 25.7 | 35.4 | 0.03 | 0.99 | 0.94 | 70 | 1008.7 |
| 20260506110403 | 20 | 180 | 25.7 | 35.4 | 0.03 | 0.99 | 0.94 | 69 | 1008.7 |
| 20260506110300 | 20 | 192 | 24.1 | 35.4 | 0.03 | 0.99 | 0.94 | 72 | 1008.7 |
| 20260506110104 | 20 | 180 | 32.2 | 35.4 | 0.03 | 0.99 | 0.94 | 72 | 1008.8 |
| 20260506110005 | 20 | 171 | 32.2 | 33.8 | 0.03 | 0.99 | 0.94 | 72 | 1008.8 |
| 20260506105900 | 20 | 193 | 25.7 | 33.8 | 0.03 | 0.99 | 0.94 | 73 | 1008.9 |
| 20260506105805 | 20 | 185 | 12.9 | 33.8 | 0.03 | 0.99 | 0.94 | 71 | 1008.9 |
| 20260506105701 | 20 | 176 | 19.3 | 33.8 | 0.03 | 0.99 | 0.94 | 73 | 1008.9 |
| 20260506105559 | 20 | 165 | 22.5 | 33.8 | 0.03 | 0.99 | 0.94 | 73 | 1008.9 |
| 20260506105505 | 20 | 184 | 16.1 | 33.8 | 0.03 | 0.99 | 0.94 | 72 | 1008.9 |
| 20260506105304 | 20 | 184 | 29.0 | 29.0 | 0.03 | 0.99 | 0.94 | 72 | 1008.9 |
| 20260506105100 | 20 | 193 | 30.6 | 43.5 | 0.00 | 0.99 | 0.91 | 72 | 1008.8 |
| 20260506105000 | 20 | 168 | 17.7 | 43.5 | 0.00 | 0.99 | 0.91 | 72 | 1008.8 |
| 20260506104802 | 20 | 169 | 19.3 | 43.5 | 0.00 | 0.99 | 0.91 | 72 | 1008.9 |
| 20260506104700 | 20 | 176 | 14.5 | 43.5 | 0.00 | 0.99 | 0.91 | 72 | 1008.9 |
| 20260506104606 | 20 | 198 | 22.5 | 43.5 | 0.00 | 0.99 | 0.91 | 72 | 1008.9 |
| 20260506104503 | 20 | 201 | 16.1 | 43.5 | 0.00 | 0.99 | 0.91 | 72 | 1008.9 |
| 20260506104401 | 20 | 198 | 17.7 | 43.5 | 0.00 | 0.99 | 0.91 | 73 | 1008.9 |
| 20260506104302 | 20 | 171 | 24.1 | 43.5 | 0.00 | 0.99 | 0.91 | 73 | 1008.9 |
| 20260506104201 | 20 | 198 | 27.4 | 43.5 | 0.00 | 0.99 | 0.91 | 74 | 1008.9 |
| 20260506104100 | 20 | 152 | 20.9 | 38.6 | 0.00 | 0.99 | 0.91 | 74 | 1008.9 |
| 20260506104006 | 20 | 169 | 20.9 | 38.6 | 0.00 | 0.99 | 0.91 | 73 | 1008.9 |
| 20260506103801 | 20 | 173 | 17.7 | 38.6 | 0.00 | 0.99 | 0.91 | 72 | 1008.9 |
| 20260506103705 | 20 | 163 | 12.9 | 38.6 | 0.00 | 0.99 | 0.91 | 72 | 1008.9 |
| 20260506103600 | 20 | 194 | 11.3 | 38.6 | 0.00 | 0.99 | 0.91 | 72 | 1008.9 |
| 20260506103501 | 20 | 191 | 24.1 | 38.6 | 0.00 | 0.99 | 0.91 | 72 | 1008.9 |
| 20260506103403 | 20 | 164 | 16.1 | 38.6 | 0.00 | 0.99 | 0.91 | 73 | 1009.0 |
| 20260506103259 | 20 | 158 | 19.3 | 38.6 | 0.00 | 0.99 | 0.91 | 72 | 1008.9 |
| 20260506103200 | 20 | 204 | 22.5 | 33.8 | 0.00 | 0.99 | 0.91 | 73 | 1008.9 |
| 20260506103102 | 20 | 176 | 22.5 | 33.8 | 0.00 | 0.99 | 0.91 | 73 | 1008.9 |
| 20260506103003 | 20 | 174 | 17.7 | 33.8 | 0.00 | 0.99 | 0.91 | 72 | 1008.9 |
| 20260506102903 | 20 | 185 | 33.8 | 33.8 | 0.00 | 0.99 | 0.91 | 72 | 1009.0 |
| 20260506102803 | 20 | 173 | 24.1 | 33.8 | 0.00 | 0.99 | 0.91 | 71 | 1009.0 |
| 20260506102701 | 20 | 167 | 32.2 | 32.2 | 0.00 | 0.99 | 0.91 | 73 | 1009.1 |
| 20260506102600 | 20 | 192 | 17.7 | 32.2 | 0.00 | 0.99 | 0.91 | 73 | 1009.0 |
| 20260506102504 | 20 | 175 | 24.1 | 29.0 | 0.00 | 0.99 | 0.91 | 73 | 1009.0 |
| 20260506102401 | 20 | 181 | 16.1 | 25.7 | 0.00 | 0.99 | 0.91 | 73 | 1009.1 |
| 20260506102300 | 20 | 165 | 9.7 | 25.7 | 0.00 | 0.99 | 0.91 | 74 | 1009.1 |
| 20260506102203 | 20 | 178 | 14.5 | 25.7 | 0.00 | 0.99 | 0.91 | 73 | 1009.1 |
| 20260506102107 | 20 | 155 | 14.5 | 22.5 | 0.00 | 0.99 | 0.91 | 73 | 1009.1 |
| 20260506102001 | 20 | 184 | 20.9 | 22.5 | 0.00 | 0.99 | 0.91 | 73 | 1009.1 |
| 20260506101902 | 20 | 186 | 16.1 | 22.5 | 0.00 | 0.99 | 0.91 | 73 | 1009.2 |
| 20260506101807 | 20 | 174 | 12.9 | 19.3 | 0.00 | 0.99 | 0.91 | 73 | 1009.1 |
| 20260506101708 | 20 | 157 | 8.0 | 24.1 | 0.00 | 0.99 | 0.91 | 74 | 1009.1 |
| 20260506101301 | 20 | 156 | 11.3 | 24.1 | 0.00 | 0.99 | 0.91 | 74 | 1009.1 |
| 20260506101201 | 20 | 159 | 8.0 | 24.1 | 0.00 | 0.99 | 0.91 | 76 | 1009.1 |
| 20260506101103 | 20 | 172 | 9.7 | 24.1 | 0.00 | 0.99 | 0.91 | 74 | 1009.1 |
| 20260506101000 | 20 | 179 | 12.9 | 24.1 | 0.00 | 0.99 | 0.91 | 74 | 1009.2 |
| 20260506100900 | 20 | 160 | 6.4 | 24.1 | 0.00 | 0.99 | 0.91 | 74 | 1009.1 |
| 20260506100803 | 20 | 178 | 20.9 | 24.1 | 0.00 | 0.99 | 0.91 | 73 | 1009.1 |
| 20260506100700 | 20 | 163 | 16.1 | 33.8 | 0.00 | 0.99 | 0.91 | 74 | 1009.1 |
| 20260506100600 | 20 | 185 | 25.7 | 33.8 | 0.00 | 0.99 | 0.91 | 74 | 1009.2 |
| 20260506100503 | 20 | 166 | 16.1 | 33.8 | 0.00 | 0.99 | 0.91 | 74 | 1009.1 |
| 20260506100400 | 20 | 179 | 11.3 | 33.8 | 0.00 | 0.99 | 0.91 | 73 | 1009.0 |
| 20260506100203 | 20 | 161 | 6.4 | 33.8 | 0.00 | 0.99 | 0.91 | 74 | 1009.0 |
| 20260506100131 | 20 | 168 | 12.9 | 33.8 | 0.00 | 0.99 | 0.91 | 73 | 1009.1 |
| 20260506095801 | 20 | 178 | 17.7 | 33.8 | 0.00 | 0.99 | 0.91 | 73 | 1009.2 |
| 20260506095701 | 20 | 165 | 12.9 | 27.4 | 0.00 | 0.99 | 0.91 | 73 | 1009.2 |
| 20260506095607 | 20 | 167 | 22.5 | 27.4 | 0.00 | 0.99 | 0.91 | 73 | 1009.2 |
| 20260506095501 | 20 | 178 | 17.7 | 27.4 | 0.00 | 0.99 | 0.91 | 73 | 1009.2 |
| 20260506095400 | 20 | 159 | 14.5 | 27.4 | 0.00 | 0.99 | 0.91 | 74 | 1009.2 |
| 20260506095306 | 20 | 173 | 14.5 | 27.4 | 0.00 | 0.99 | 0.91 | 74 | 1009.2 |
| 20260506095200 | 20 | 187 | 14.5 | 27.4 | 0.00 | 0.99 | 0.91 | 73 | 1009.3 |
| 20260506095101 | 20 | 203 | 25.7 | 27.4 | 0.00 | 0.99 | 0.91 | 74 | 1009.2 |
| 20260506095003 | 20 | 217 | 16.1 | 22.5 | 0.00 | 0.99 | 0.91 | 74 | 1009.2 |
| 20260506094801 | 20 | 177 | 9.7 | 22.5 | 0.00 | 0.99 | 0.91 | 76 | 1009.3 |
| 20260506094703 | 20 | 167 | 9.7 | 22.5 | 0.00 | 0.99 | 0.91 | 76 | 1009.2 |
| 20260506094600 | 20 | 179 | 11.3 | 22.5 | 0.00 | 0.99 | 0.91 | 75 | 1009.2 |
| 20260506094500 | 20 | 190 | 16.1 | 20.9 | 0.00 | 0.99 | 0.91 | 74 | 1009.2 |
| 20260506094402 | 20 | 186 | 11.3 | 20.9 | 0.00 | 0.99 | 0.91 | 75 | 1009.2 |
| 20260506094259 | 20 | 160 | 9.7 | 20.9 | 0.00 | 0.99 | 0.91 | 74 | 1009.2 |
| 20260506094102 | 20 | 183 | 19.3 | 19.3 | 0.00 | 0.99 | 0.91 | 74 | 1009.2 |
| 20260506093900 | 20 | 198 | 8.0 | 19.3 | 0.00 | 0.99 | 0.91 | 74 | 1009.2 |
| 20260506093503 | 20 | 176 | 12.9 | 24.1 | 0.00 | 0.99 | 0.91 | 73 | 1009.1 |
| 20260506093001 | 20 | 161 | 12.9 | 24.1 | 0.00 | 0.99 | 0.91 | 76 | 1009.1 |
| 20260506092903 | 20 | 142 | 6.4 | 24.1 | 0.00 | 0.99 | 0.91 | 75 | 1009.1 |
| 20260506092759 | 20 | 137 | 14.5 | 24.1 | 0.00 | 0.99 | 0.91 | 75 | 1009.1 |
| 20260506092603 | 20 | 136 | 20.9 | 27.4 | 0.00 | 0.99 | 0.91 | 76 | 1009.1 |
| 20260506092501 | 20 | 182 | 11.3 | 27.4 | 0.00 | 0.99 | 0.91 | 76 | 1009.2 |
| 20260506092400 | 20 | 142 | 9.7 | 27.4 | 0.00 | 0.99 | 0.91 | 75 | 1009.1 |
| 20260506092200 | 20 | 194 | 9.7 | 27.4 | 0.00 | 0.99 | 0.91 | 76 | 1009.1 |
| 20260506092100 | 20 | 164 | 6.4 | 27.4 | 0.00 | 0.99 | 0.91 | 76 | 1009.1 |
| 20260506092010 | 20 | 166 | 4.8 | 27.4 | 0.00 | 0.99 | 0.91 | 74 | 1009.1 |
| 20260506091900 | 20 | 144 | 6.4 | 27.4 | 0.00 | 0.99 | 0.91 | 75 | 1009.2 |
| 20260506091800 | 20 | 156 | 6.4 | 27.4 | 0.00 | 0.99 | 0.91 | 76 | 1009.2 |
| 20260506091703 | 20 | 184 | 11.3 | 27.4 | 0.00 | 0.99 | 0.91 | 76 | 1009.2 |
| 20260506091600 | 20 | 165 | 11.3 | 24.1 | 0.00 | 0.99 | 0.91 | 76 | 1009.2 |
| 20260506091500 | 19 | 157 | 8.0 | 20.9 | 0.00 | 0.99 | 0.91 | 76 | 1009.2 |
| 20260506091402 | 19 | 178 | 12.9 | 16.1 | 0.00 | 0.99 | 0.91 | 77 | 1009.2 |
| 20260506091300 | 19 | 179 | 6.4 | 17.7 | 0.00 | 0.99 | 0.91 | 76 | 1009.2 |
| 20260506091200 | 19 | 165 | 6.4 | 17.7 | 0.00 | 0.99 | 0.91 | 77 | 1009.1 |
| 20260506091104 | 19 | 147 | 8.0 | 17.7 | 0.00 | 0.99 | 0.91 | 77 | 1009.1 |
| 20260506091000 | 19 | 164 | 6.4 | 17.7 | 0.00 | 0.99 | 0.91 | 77 | 1009.1 |
| 20260506090900 | 19 | 155 | 8.0 | 20.9 | 0.00 | 0.99 | 0.91 | 78 | 1009.1 |
| 20260506090803 | 19 | 163 | 8.0 | 20.9 | 0.00 | 0.99 | 0.91 | 78 | 1009.1 |
| 20260506090708 | 19 | 153 | 6.4 | 20.9 | 0.00 | 0.99 | 0.91 | 77 | 1009.1 |
| 20260506090559 | 19 | 163 | 4.8 | 20.9 | 0.00 | 0.99 | 0.91 | 77 | 1009.1 |
| 20260506090503 | 19 | 176 | 6.4 | 20.9 | 0.00 | 0.99 | 0.91 | 78 | 1009.1 |
| 20260506090400 | 19 | 133 | 11.3 | 20.9 | 0.00 | 0.99 | 0.91 | 77 | 1009.1 |
| 20260506090300 | 19 | 132 | 9.7 | 20.9 | 0.00 | 0.99 | 0.91 | 78 | 1009.1 |
| 20260506090202 | 19 | 132 | 16.1 | 20.9 | 0.00 | 0.99 | 0.91 | 78 | 1009.1 |
| 20260506090100 | 19 | 173 | 9.7 | 20.9 | 0.00 | 0.99 | 0.91 | 77 | 1009.1 |
| 20260506085907 | 19 | 132 | 19.3 | 22.5 | 0.00 | 0.99 | 0.91 | 78 | 1009.1 |
| 20260506085701 | 19 | 154 | 12.9 | 19.3 | 0.00 | 0.99 | 0.91 | 78 | 1009.1 |
| 20260506085603 | 19 | 116 | 14.5 | 17.7 | 0.00 | 0.99 | 0.91 | 78 | 1009.1 |
| 20260506085500 | 19 | 128 | 11.3 | 16.1 | 0.00 | 0.99 | 0.91 | 78 | 1009.1 |
| 20260506085400 | 19 | 140 | 16.1 | 17.7 | 0.00 | 0.99 | 0.91 | 78 | 1009.1 |
| 20260506085306 | 19 | 93 | 14.5 | 16.1 | 0.00 | 0.99 | 0.91 | 77 | 1009.1 |
| 20260506085200 | 19 | 184 | 3.2 | 14.5 | 0.00 | 0.99 | 0.91 | 78 | 1009.1 |
| 20260506084901 | 19 | 170 | 4.8 | 19.3 | 0.00 | 0.99 | 0.91 | 79 | 1009.1 |
| 20260506084800 | 19 | 118 | 12.9 | 27.4 | 0.00 | 0.99 | 0.91 | 80 | 1009.1 |
| 20260506084705 | 19 | 124 | 14.5 | 27.4 | 0.00 | 0.99 | 0.91 | 81 | 1009.1 |
| 20260506084600 | 19 | 126 | 11.3 | 27.4 | 0.00 | 0.99 | 0.91 | 81 | 1009.1 |
| 20260506084500 | 19 | 117 | 12.9 | 27.4 | 0.00 | 0.99 | 0.91 | 80 | 1009.0 |
| 20260506084402 | 18 | 130 | 14.5 | 27.4 | 0.00 | 0.99 | 0.91 | 80 | 1009.0 |
| 20260506084300 | 18 | 110 | 14.5 | 27.4 | 0.00 | 0.99 | 0.91 | 81 | 1009.0 |
| 20260506084200 | 18 | 138 | 9.7 | 27.4 | 0.00 | 0.99 | 0.91 | 81 | 1009.1 |
| 20260506084103 | 18 | 127 | 12.9 | 27.4 | 0.00 | 0.99 | 0.91 | 82 | 1009.0 |
| 20260506084009 | 18 | 136 | 14.5 | 27.4 | 0.00 | 0.99 | 0.91 | 82 | 1009.0 |
| 20260506083900 | 18 | 130 | 14.5 | 27.4 | 0.00 | 0.99 | 0.91 | 82 | 1009.0 |
| 20260506083659 | 18 | 132 | 4.8 | 19.3 | 0.00 | 0.99 | 0.91 | 83 | 1009.1 |
| 20260506083558 | 18 | 130 | 19.3 | 19.3 | 0.00 | 0.99 | 0.91 | 83 | 1009.1 |
| 20260506083503 | 18 | 103 | 8.0 | 19.3 | 0.00 | 0.99 | 0.91 | 83 | 1009.2 |
| 20260506083403 | 18 | 90 | 11.3 | 19.3 | 0.00 | 0.99 | 0.91 | 83 | 1009.2 |
| 20260506083301 | 18 | 109 | 16.1 | 19.3 | 0.00 | 0.99 | 0.91 | 83 | 1009.2 |
| 20260506083202 | 18 | 123 | 14.5 | 19.3 | 0.00 | 0.99 | 0.91 | 83 | 1009.2 |
| 20260506083100 | 18 | 122 | 8.0 | 19.3 | 0.00 | 0.99 | 0.91 | 84 | 1009.2 |
| 20260506083001 | 18 | 112 | 11.3 | 19.3 | 0.00 | 0.99 | 0.91 | 85 | 1009.2 |
| 20260506082903 | 18 | 110 | 6.4 | 19.3 | 0.00 | 0.99 | 0.91 | 84 | 1009.2 |
| 20260506082800 | 18 | 122 | 11.3 | 19.3 | 0.00 | 0.99 | 0.91 | 84 | 1009.2 |
| 20260506082700 | 18 | 126 | 6.4 | 19.3 | 0.00 | 0.99 | 0.91 | 85 | 1009.2 |
| 20260506082603 | 18 | 118 | 12.9 | 19.3 | 0.00 | 0.99 | 0.91 | 86 | 1009.2 |
| 20260506082502 | 18 | 54 | 12.9 | 19.3 | 0.00 | 0.99 | 0.91 | 87 | 1009.2 |
| 20260506082403 | 18 | 58 | 17.7 | 19.3 | 0.00 | 0.99 | 0.91 | 87 | 1009.1 |
| 20260506082305 | 18 | 68 | 11.3 | 19.3 | 0.00 | 0.99 | 0.91 | 87 | 1009.1 |
| 20260506082200 | 18 | 84 | 9.7 | 19.3 | 0.00 | 0.99 | 0.91 | 87 | 1009.1 |
| 20260506082100 | 18 | 79 | 9.7 | 19.3 | 0.00 | 0.99 | 0.91 | 87 | 1009.2 |
| 20260506081900 | 17 | 82 | 4.8 | 19.3 | 0.00 | 0.99 | 0.91 | 87 | 1009.1 |
| 20260506081702 | 17 | 82 | 11.3 | 19.3 | 0.00 | 0.99 | 0.91 | 87 | 1009.1 |
| 20260506081600 | 17 | 101 | 11.3 | 19.3 | 0.00 | 0.99 | 0.91 | 87 | 1009.1 |
| 20260506081459 | 17 | 82 | 12.9 | 20.9 | 0.00 | 0.99 | 0.91 | 87 | 1009.2 |
| 20260506081403 | 17 | 89 | 9.7 | 20.9 | 0.00 | 0.99 | 0.91 | 87 | 1009.2 |
| 20260506081300 | 17 | 90 | 12.9 | 20.9 | 0.00 | 0.99 | 0.91 | 87 | 1009.2 |
| 20260506081103 | 17 | 129 | 11.3 | 20.9 | 0.00 | 0.99 | 0.91 | 88 | 1009.1 |
| 20260506081000 | 17 | 97 | 4.8 | 20.9 | 0.00 | 0.99 | 0.91 | 88 | 1009.1 |
| 20260506080901 | 17 | 98 | 12.9 | 20.9 | 0.00 | 0.99 | 0.91 | 88 | 1009.2 |
| 20260506080803 | 17 | 94 | 17.7 | 20.9 | 0.00 | 0.99 | 0.91 | 88 | 1009.2 |
| 20260506080701 | 17 | 113 | 14.5 | 20.9 | 0.00 | 0.99 | 0.91 | 89 | 1009.2 |
| 20260506080600 | 17 | 121 | 16.1 | 20.9 | 0.00 | 0.99 | 0.91 | 89 | 1009.2 |
| 20260506080503 | 17 | 99 | 14.5 | 20.9 | 0.00 | 0.99 | 0.91 | 89 | 1009.2 |
| 20260506080400 | 17 | 90 | 14.5 | 20.9 | 0.00 | 0.99 | 0.91 | 90 | 1009.2 |
| 20260506080303 | 17 | 96 | 14.5 | 20.9 | 0.00 | 0.99 | 0.91 | 90 | 1009.2 |
| 20260506073503 | 15 | 102 | 12.9 | 14.5 | 0.00 | 0.99 | 0.91 | 92 | 1009.2 |
| 20260506073400 | 15 | 84 | 8.0 | 14.5 | 0.00 | 0.99 | 0.91 | 92 | 1009.2 |
| 20260506073302 | 15 | 105 | 8.0 | 14.5 | 0.00 | 0.99 | 0.91 | 92 | 1009.2 |
| 20260506073201 | 15 | 109 | 4.8 | 14.5 | 0.00 | 0.99 | 0.91 | 92 | 1009.3 |
| 20260506073100 | 15 | 97 | 11.3 | 14.5 | 0.00 | 0.99 | 0.91 | 93 | 1009.2 |
| 20260506073003 | 15 | 122 | 6.4 | 14.5 | 0.00 | 0.99 | 0.91 | 93 | 1009.3 |
| 20260506072904 | 15 | 107 | 8.0 | 12.9 | 0.00 | 0.99 | 0.91 | 93 | 1009.3 |
| 20260506072800 | 15 | 95 | 9.7 | 12.9 | 0.00 | 0.99 | 0.91 | 93 | 1009.3 |
| 20260506072703 | 15 | 109 | 6.4 | 12.9 | 0.00 | 0.99 | 0.91 | 93 | 1009.3 |
| 20260506072402 | 15 | 82 | 4.8 | 14.5 | 0.00 | 0.99 | 0.91 | 93 | 1009.3 |
| 20260506072305 | 15 | 122 | 4.8 | 14.5 | 0.00 | 0.99 | 0.91 | 93 | 1009.3 |
| 20260506072200 | 15 | 97 | 8.0 | 14.5 | 0.00 | 0.99 | 0.91 | 93 | 1009.3 |
| 20260506072102 | 15 | 116 | 6.4 | 14.5 | 0.00 | 0.99 | 0.91 | 93 | 1009.2 |
| 20260506071801 | 15 | 107 | 6.4 | 14.5 | 0.00 | 0.99 | 0.91 | 93 | 1009.3 |
| 20260506071601 | 15 | 128 | 8.0 | 16.1 | 0.00 | 0.99 | 0.91 | 93 | 1009.4 |
| 20260506071502 | 15 | 118 | 8.0 | 17.7 | 0.00 | 0.99 | 0.91 | 93 | 1009.4 |
| 20260506071406 | 15 | 116 | 11.3 | 17.7 | 0.00 | 0.99 | 0.91 | 94 | 1009.4 |
| 20260506071301 | 15 | 134 | 9.7 | 17.7 | 0.00 | 0.99 | 0.91 | 94 | 1009.5 |
| 20260506071202 | 15 | 138 | 12.9 | 17.7 | 0.00 | 0.99 | 0.91 | 94 | 1009.3 |
| 20260506071103 | 15 | 138 | 9.7 | 17.7 | 0.00 | 0.99 | 0.91 | 94 | 1009.3 |
| 20260506071001 | 15 | 119 | 8.0 | 17.7 | 0.00 | 0.99 | 0.91 | 94 | 1009.2 |
| 20260506070903 | 15 | 122 | 11.3 | 17.7 | 0.00 | 0.99 | 0.91 | 94 | 1009.3 |
| 20260506070804 | 15 | 119 | 11.3 | 17.7 | 0.00 | 0.99 | 0.91 | 94 | 1009.3 |